GFSGBSN_prec_kuchsnow_225.txt.gz
Snowfall_Accumulation
0.0 0.0 0.0 0.0 0.0 0.0 0.0 0.0 0.0 0.0 0.0 0.0 0.0 0.0 0.0 0.0 0.0 0.0 0.0 0.0 0.0 0.0 0.0 0.0 0.0 0.0 0.0 0.0 0.0 0.0 0.0 0.0 0.0 0.0 0.0 0.0 0.0 0.0 0.0 0.0 0.0 0.0 0.0 0.0 0.0 0.0 0.0
0.0 0.0 0.0 0.0 0.0 0.0 0.0 0.0 0.0 0.0 0.0 0.0 0.0 0.0 0.0 0.0 0.0 0.0 0.0 0.0 0.0 0.0 0.0 0.0 0.0 0.0 0.0 0.0 0.0 0.0 0.0 0.0 0.0 0.0 0.0 0.0 0.0 0.0 0.0 0.0 0.0 0.0 0.0 0.0 0.0 0.0 0.0
0.0 0.0 0.0 0.0 0.0 0.0 0.0 0.0 0.0 0.0 0.0 0.0 0.0 0.0 0.0 0.0 0.0 0.0 0.0 0.0 0.0 0.0 0.0 0.0 0.0 0.0 0.0 0.0 0.0 0.0 0.0 0.0 0.0 0.0 0.0 0.0 0.0 0.0 0.0 0.0 0.0 0.0 0.0 0.0 0.0 0.0 0.0
0.0 0.0 0.0 0.0 0.0 0.0 0.0 0.0 0.0 0.0 0.0 0.0 0.0 0.0 0.0 0.0 0.0 0.0 0.0 0.0 0.0 0.0 0.0 0.0 0.0 0.0 0.0 0.0 0.0 0.0 0.0 0.0 0.0 0.0 0.0 0.0 0.0 0.0 0.0 0.0 0.0 0.0 0.0 0.0 0.0 0.0 0.0
0.0 0.0 0.0 0.0 0.0 0.0 0.0 0.0 0.0 0.0 0.0 0.0 0.0 0.0 0.0 0.0 0.0 0.0 0.0 0.0 0.0 0.0 0.0 0.0 0.0 0.0 0.0 0.0 0.0 0.0 0.0 0.0 0.0 0.0 0.0 0.0 0.0 0.0 0.0 0.0 0.0 0.0 0.0 0.0 0.0 0.0 0.0
0.0 0.0 0.0 0.0 0.0 0.0 0.0 0.0 0.0 0.0 0.0 0.0 0.0 0.0 0.0 0.0 0.0 0.0 0.0 0.0 0.0 0.0 0.0 0.0 0.0 0.0 0.0 0.0 0.0 0.0 0.0 0.0 0.0 0.0 0.0 0.0 0.0 0.0 0.0 0.0 0.0 0.0 0.0 0.0 0.0 0.0 0.0
0.0 0.0 0.0 0.0 0.0 0.0 0.0 0.0 0.0 0.0 0.0 0.0 0.0 0.0 0.0 0.0 0.0 0.0 0.0 0.0 0.0 0.0 0.0 0.0 0.0 0.0 0.0 0.0 0.0 0.0 0.0 0.0 0.0 0.0 0.0 0.0 0.0 0.0 0.0 0.0 0.0 0.0 0.0 0.0 0.0 0.0 0.0
0.0 0.0 0.0 0.0 0.0 0.0 0.0 0.0 0.0 0.0 0.0 0.0 0.0 0.0 0.0 0.0 0.0 0.0 0.0 0.0 0.0 0.0 0.0 0.0 0.0 0.0 0.0 0.0 0.0 0.0 0.0 0.0 0.0 0.0 0.0 0.0 0.0 0.0 0.0 0.0 0.0 0.0 0.0 0.0 0.0 0.0 0.0
0.0 0.0 0.0 0.0 0.0 0.0 0.0 0.0 0.0 0.0 0.0 0.0 0.0 0.0 0.0 0.0 0.0 0.0 0.0 0.0 0.0 0.0 0.1 0.0 0.0 0.0 0.0 0.0 0.0 0.0 0.0 0.0 0.0 0.0 0.0 0.0 0.0 0.0 0.0 0.0 0.0 0.0 0.0 0.0 0.0 0.0 0.0
0.0 0.0 0.0 0.0 0.0 0.0 0.0 0.0 0.0 0.0 0.0 0.0 0.0 0.0 0.0 0.0 0.0 0.0 0.0 0.0 0.0 0.0 2.6 0.0 0.0 0.0 0.0 0.0 0.0 0.0 0.0 0.0 0.0 0.0 0.0 0.0 0.0 0.0 0.0 0.0 0.0 0.0 0.0 0.0 0.0 0.0 0.8
0.0 0.0 0.0 0.0 0.0 0.0 0.0 0.0 0.0 0.0 0.0 0.0 0.0 0.0 0.0 0.0 0.0 0.0 0.0 0.0 0.0 0.0 82.1 0.0 0.0 0.0 0.0 0.0 0.0 0.0 0.0 0.0 0.0 0.0 0.0 0.0 0.0 0.0 0.0 0.0 0.0 0.0 0.0 0.0 0.0 0.0 0.0
0.0 0.0 0.0 0.0 0.0 0.0 0.0 0.0 0.0 0.0 0.0 0.0 0.0 0.0 0.0 0.0 0.0 0.0 0.0 0.0 0.0 14.0 71.4 0.0 0.0 0.0 0.0 0.0 0.0 0.0 0.0 0.0 0.0 0.0 0.0 0.0 0.0 0.0 0.0 0.0 0.0 0.0 0.0 0.0 0.0 0.0 2.1
0.0 0.0 0.0 0.0 0.0 0.0 0.0 0.0 0.0 0.0 0.0 0.0 0.0 0.0 0.0 0.0 0.0 0.0 0.0 0.0 35.2 69.6 0.0 0.0 0.0 0.0 0.0 0.0 0.0 0.0 0.0 0.0 2.1 2.3 0.8 0.0 0.0 0.0 0.0 0.0 0.0 0.0 0.0 15.9 18.4 16.0 8.9
0.0 0.0 0.0 0.0 0.0 0.0 0.0 0.0 0.0 0.0 0.0 0.0 0.0 0.0 0.0 0.0 0.0 0.0 0.0 3.9 82.4 6.5 0.0 0.0 0.0 0.0 0.4 0.2 0.0 0.0 0.0 1.1 2.3 3.5 4.2 2.8 3.3 0.0 0.0 0.0 0.0 0.1 0.0 7.1 27.9 14.6 2.9
0.0 0.0 0.0 0.0 0.0 0.0 0.0 0.0 0.0 0.0 0.0 0.0 0.0 0.0 0.0 0.0 0.0 0.0 1.9 64.6 23.0 1.5 0.5 0.7 0.0 0.6 1.4 0.5 1.4 0.6 0.1 2.3 5.0 7.8 19.6 24.1 12.0 1.3 0.7 0.0 0.0 0.0 0.0 0.0 4.5 0.9 12.4
0.0 0.0 0.0 0.0 0.0 0.0 0.0 0.0 0.0 0.0 0.0 0.0 0.0 0.0 0.0 0.0 0.0 0.0 18.3 32.6 5.6 0.8 1.3 1.4 9.6 6.1 9.8 2.7 5.5 7.4 7.6 8.0 8.4 7.6 5.2 23.6 33.9 7.7 1.6 0.0 0.0 0.9 0.0 1.5 4.2 51.0 43.0
0.0 0.0 0.0 0.0 0.0 0.0 0.0 0.0 0.0 0.0 0.0 0.0 0.0 0.7 0.0 0.0 0.0 1.5 49.3 13.7 1.1 0.0 0.0 3.7 12.3 12.7 6.7 8.4 6.4 8.1 5.7 1.4 1.0 3.9 2.7 8.1 18.5 7.0 2.5 7.3 10.7 9.2 11.4 11.5 15.5 33.8 44.2
0.0 0.0 0.0 0.0 0.0 0.0 0.0 0.0 0.0 0.0 0.0 0.0 0.0 17.6 0.0 0.0 10.6 24.5 19.7 3.8 0.0 0.0 0.0 1.1 2.5 5.3 8.8 8.6 10.0 13.5 7.7 1.6 0.0 0.5 2.6 1.0 10.3 9.8 2.9 0.6 0.6 2.4 10.9 17.5 41.9 39.9 29.0
0.0 0.0 0.0 0.0 0.0 0.0 0.0 0.0 0.0 0.0 0.0 0.0 6.6 4.3 0.0 0.0 30.6 15.1 2.7 1.6 0.9 1.6 0.8 2.2 4.2 4.9 6.5 11.3 15.3 5.9 4.4 0.0 0.0 0.6 4.2 1.3 11.5 14.4 5.7 0.1 0.2 2.9 2.8 6.3 18.3 24.7 37.8
0.0 0.0 0.0 0.0 0.0 0.0 0.0 0.0 0.0 0.0 0.0 0.0 5.2 29.1 3.8 2.7 1.5 3.0 4.8 4.3 4.4 0.0 0.7 0.1 3.4 4.0 5.8 4.4 1.9 6.8 4.4 0.2 0.0 0.0 0.0 0.0 9.5 11.6 13.6 8.3 5.0 8.6 5.1 3.2 10.1 37.4 23.4
0.0 0.0 0.0 0.0 0.0 0.0 0.0 0.0 0.0 0.0 0.0 0.0 12.5 21.1 0.1 20.4 12.2 5.0 4.1 5.8 6.1 5.7 0.5 0.2 3.5 3.4 7.1 12.9 4.7 2.6 1.3 0.4 0.0 0.2 0.0 0.5 16.3 6.2 3.9 4.0 2.1 2.6 5.7 3.3 4.9 5.7 13.7
0.0 0.0 0.0 0.0 0.0 0.0 0.0 0.0 0.0 0.0 0.0 0.0 47.0 8.6 1.8 2.0 0.1 2.9 10.5 14.6 7.1 1.4 5.0 2.1 3.7 1.7 2.9 10.0 4.6 8.2 3.1 0.4 2.7 0.0 0.2 0.1 8.0 7.2 6.9 3.3 1.2 6.9 7.5 3.8 2.7 4.1 5.0
0.0 0.0 0.0 0.0 0.0 0.0 0.0 0.0 0.0 0.0 0.0 0.0 1.4 0.0 3.5 3.0 1.8 5.9 4.7 2.7 3.7 2.7 0.3 0.7 1.7 4.4 4.9 2.1 0.3 0.2 0.5 0.8 2.0 4.1 3.2 3.3 6.3 6.7 10.4 0.8 1.7 11.4 9.7 5.8 2.7 1.0 1.1
0.0 0.0 0.0 0.0 0.0 0.0 0.0 0.0 0.0 0.0 0.0 0.0 0.0 0.6 13.9 16.5 5.2 2.5 0.3 1.0 1.8 1.5 5.6 1.1 0.3 2.0 0.0 0.0 0.0 0.0 0.2 0.1 0.1 0.8 1.0 5.8 5.6 8.1 9.8 5.4 24.7 6.1 1.3 0.5 0.2 0.4 0.4
0.0 0.0 0.0 0.0 0.0 0.0 0.0 0.0 0.0 0.0 0.0 0.0 0.0 0.1 10.1 17.1 1.5 2.0 2.0 2.8 0.2 0.5 2.0 1.3 0.6 0.0 0.0 0.6 3.5 5.8 3.0 1.8 0.7 0.1 0.3 1.0 4.8 15.5 16.4 6.7 4.2 1.4 0.8 0.5 0.5 1.1 0.6
0.0 0.0 0.0 0.0 0.0 0.0 0.0 0.0 0.0 0.0 0.0 0.0 0.0 0.0 5.9 21.2 5.9 0.4 4.7 3.2 5.4 2.9 3.8 1.8 0.0 0.0 0.0 3.1 10.7 14.1 6.4 2.1 1.4 0.5 0.0 0.3 2.0 17.5 19.2 18.1 8.4 2.0 0.3 0.0 0.0 1.5 0.4
0.0 0.0 0.0 0.0 0.0 0.0 0.0 0.0 0.0 0.0 0.0 0.0 0.0 0.0 2.4 24.8 0.2 0.4 2.3 4.2 2.0 2.2 3.5 0.8 0.4 0.1 0.5 8.4 14.2 12.0 6.7 2.5 6.1 3.9 2.8 7.0 11.4 27.7 23.2 30.1 8.6 1.5 0.6 0.2 5.1 6.1 0.8
0.0 0.0 0.0 0.0 0.0 0.0 0.0 0.0 0.0 0.0 0.0 0.0 0.0 0.0 0.0 10.5 0.4 0.0 0.0 0.2 0.3 0.5 5.1 1.9 6.5 4.4 8.7 19.1 16.6 11.5 9.5 6.2 4.2 1.1 5.2 9.2 15.1 13.9 16.9 28.2 23.7 1.2 1.0 3.6 3.1 0.5 0.5
0.0 0.0 0.0 0.0 0.0 0.0 0.0 0.0 0.0 0.0 0.0 0.0 2.1 0.0 0.0 1.5 0.0 0.0 0.0 0.0 0.0 0.0 0.4 2.0 5.5 6.3 9.1 19.6 13.5 5.8 7.1 7.8 4.9 12.5 0.9 8.8 4.1 8.7 8.3 16.5 5.9 3.9 3.7 1.0 0.4 1.2 1.0

GFSGBSN_prec_kuchsnow_228.txt.gz
Snowfall_Accumulation
0.0 0.0 0.0 0.0 0.0 0.0 0.0 0.0 0.0 0.0 0.0 0.0 0.0 0.0 0.0 0.0 0.0 0.0 0.0 0.0 0.0 0.0 0.0 0.0 0.0 0.0 0.0 0.0 0.0 0.0 0.0 0.0 0.0 0.0 0.0 0.0 0.0 0.0 0.0 0.0 0.0 0.0 0.0 0.0 0.0 0.0 0.0
0.0 0.0 0.0 0.0 0.0 0.0 0.0 0.0 0.0 0.0 0.0 0.0 0.0 0.0 0.0 0.0 0.0 0.0 0.0 0.0 0.0 0.0 0.0 0.0 0.0 0.0 0.0 0.0 0.0 0.0 0.0 0.0 0.0 0.0 0.0 0.0 0.0 0.0 0.0 0.0 0.0 0.0 0.0 0.0 0.0 0.0 0.0
0.0 0.0 0.0 0.0 0.0 0.0 0.0 0.0 0.0 0.0 0.0 0.0 0.0 0.0 0.0 0.0 0.0 0.0 0.0 0.0 0.0 0.0 0.0 0.0 0.0 0.0 0.0 0.0 0.0 0.0 0.0 0.0 0.0 0.0 0.0 0.0 0.0 0.0 0.0 0.0 0.0 0.0 0.0 0.0 0.0 0.0 0.0
0.0 0.0 0.0 0.0 0.0 0.0 0.0 0.0 0.0 0.0 0.0 0.0 0.0 0.0 0.0 0.0 0.0 0.0 0.0 0.0 0.0 0.0 0.0 0.0 0.0 0.0 0.0 0.0 0.0 0.0 0.0 0.0 0.0 0.0 0.0 0.0 0.0 0.0 0.0 0.0 0.0 0.0 0.0 0.0 0.0 0.0 0.0
0.0 0.0 0.0 0.0 0.0 0.0 0.0 0.0 0.0 0.0 0.0 0.0 0.0 0.0 0.0 0.0 0.0 0.0 0.0 0.0 0.0 0.0 0.0 0.0 0.0 0.0 0.0 0.0 0.0 0.0 0.0 0.0 0.0 0.0 0.0 0.0 0.0 0.0 0.0 0.0 0.0 0.0 0.0 0.0 0.0 0.0 0.0
0.0 0.0 0.0 0.0 0.0 0.0 0.0 0.0 0.0 0.0 0.0 0.0 0.0 0.0 0.0 0.0 0.0 0.0 0.0 0.0 0.0 0.0 0.0 0.0 0.0 0.0 0.0 0.0 0.0 0.0 0.0 0.0 0.0 0.0 0.0 0.0 0.0 0.0 0.0 0.0 0.0 0.0 0.0 0.0 0.0 0.0 0.0
0.0 0.0 0.0 0.0 0.0 0.0 0.0 0.0 0.0 0.0 0.0 0.0 0.0 0.0 0.0 0.0 0.0 0.0 0.0 0.0 0.0 0.0 0.0 0.0 0.0 0.0 0.0 0.0 0.0 0.0 0.0 0.0 0.0 0.0 0.0 0.0 0.0 0.0 0.0 0.0 0.0 0.0 0.0 0.0 0.0 0.0 0.0
0.0 0.0 0.0 0.0 0.0 0.0 0.0 0.0 0.0 0.0 0.0 0.0 0.0 0.0 0.0 0.0 0.0 0.0 0.0 0.0 0.0 0.0 0.0 0.0 0.0 0.0 0.0 0.0 0.0 0.0 0.0 0.0 0.0 0.0 0.0 0.0 0.0 0.0 0.0 0.0 0.0 0.0 0.0 0.0 0.0 0.0 0.0
0.0 0.0 0.0 0.0 0.0 0.0 0.0 0.0 0.0 0.0 0.0 0.0 0.0 0.0 0.0 0.0 0.0 0.0 0.0 0.0 0.0 0.0 0.1 0.0 0.0 0.0 0.0 0.0 0.0 0.0 0.0 0.0 0.0 0.0 0.0 0.0 0.0 0.0 0.0 0.0 0.0 0.0 0.0 0.0 0.0 0.0 0.0
0.0 0.0 0.0 0.0 0.0 0.0 0.0 0.0 0.0 0.0 0.0 0.0 0.0 0.0 0.0 0.0 0.0 0.0 0.0 0.0 0.0 0.0 2.6 0.0 0.0 0.0 0.0 0.0 0.0 0.0 0.0 0.0 0.0 0.0 0.0 0.0 0.0 0.0 0.0 0.0 0.0 0.0 0.0 0.0 0.0 0.0 0.8
0.0 0.0 0.0 0.0 0.0 0.0 0.0 0.0 0.0 0.0 0.0 0.0 0.0 0.0 0.0 0.0 0.0 0.0 0.0 0.0 0.0 0.0 82.1 0.0 0.0 0.0 0.0 0.0 0.0 0.0 0.0 0.0 0.0 0.0 0.0 0.1 0.0 0.0 0.0 0.0 0.0 0.0 0.0 0.0 0.0 0.0 0.0
0.0 0.0 0.0 0.0 0.0 0.0 0.0 0.0 0.0 0.0 0.0 0.0 0.0 0.0 0.0 0.0 0.0 0.0 0.0 0.0 0.0 14.0 71.4 0.0 0.0 0.0 0.0 0.0 0.0 0.0 0.0 0.0 0.0 0.0 0.0 0.0 0.0 0.0 0.0 0.0 0.0 0.0 0.0 0.0 0.0 0.0 6.9
0.0 0.0 0.0 0.0 0.0 0.0 0.0 0.0 0.0 0.0 0.0 0.0 0.0 0.0 0.0 0.0 0.0 0.0 0.0 0.0 35.2 69.6 0.0 0.0 0.0 0.0 0.0 0.0 0.0 0.0 0.0 0.0 2.1 5.5 0.8 0.0 0.0 0.0 0.0 0.0 0.0 0.0 0.0 18.7 23.7 22.5 14.0
0.0 0.0 0.0 0.0 0.0 0.0 0.0 0.0 0.0 0.0 0.0 0.0 0.0 0.0 0.0 0.0 0.0 0.0 0.0 3.9 82.4 6.5 0.0 0.0 0.0 0.0 0.4 0.2 0.0 0.0 0.0 1.1 2.6 4.6 6.1 5.8 6.5 1.3 0.5 0.3 0.3 0.1 0.0 8.3 31.1 17.3 4.2
0.0 0.0 0.0 0.0 0.0 0.0 0.0 0.0 0.0 0.0 0.0 0.0 0.0 0.0 0.0 0.0 0.0 0.0 1.9 64.6 23.0 1.5 0.5 0.8 0.0 0.6 1.4 0.5 1.4 0.6 0.1 2.3 5.0 7.8 21.5 25.3 12.0 2.8 2.0 0.7 0.0 0.0 0.4 0.0 5.8 0.9 12.4
0.0 0.0 0.0 0.0 0.0 0.0 0.0 0.0 0.0 0.0 0.0 0.0 0.0 0.0 0.0 0.0 0.0 0.0 18.3 32.6 5.6 0.8 1.3 1.5 10.3 6.2 9.8 2.7 5.5 7.4 7.6 8.0 8.5 7.9 5.8 24.0 34.1 7.7 1.6 0.0 0.0 1.5 0.0 3.3 4.2 56.6 46.6
0.0 0.0 0.0 0.0 0.0 0.0 0.0 0.0 0.0 0.0 0.0 0.0 0.0 0.7 0.0 0.0 0.0 1.5 49.3 13.7 1.1 0.0 0.0 3.8 12.3 12.7 6.7 8.4 6.4 8.1 5.7 1.4 1.1 3.9 2.8 8.3 18.7 7.0 2.5 7.8 12.4 10.6 13.5 13.0 18.6 37.3 46.4
0.0 0.0 0.0 0.0 0.0 0.0 0.0 0.0 0.0 0.0 0.0 0.0 0.0 17.6 0.0 0.0 10.6 24.5 19.7 3.8 0.0 0.0 0.0 1.1 2.5 5.4 8.9 8.6 10.0 13.5 7.8 1.8 0.0 0.6 2.6 1.0 10.5 9.8 2.9 0.6 0.6 3.0 12.2 19.0 44.2 43.1 32.1
0.0 0.0 0.0 0.0 0.0 0.0 0.0 0.0 0.0 0.0 0.0 0.0 6.6 4.3 0.0 0.0 30.6 15.1 2.7 1.6 0.9 1.6 0.8 2.2 4.2 4.9 6.5 11.4 15.3 5.9 4.5 0.0 0.0 0.8 5.2 1.6 12.6 14.4 5.7 0.2 0.2 3.2 3.2 6.6 19.1 26.0 39.8
0.0 0.0 0.0 0.0 0.0 0.0 0.0 0.0 0.0 0.0 0.0 0.0 5.2 29.1 3.8 2.7 1.5 3.0 4.8 4.3 4.4 0.0 0.7 0.1 3.4 4.0 5.8 4.4 1.9 6.8 4.4 0.2 0.0 0.0 0.0 0.0 10.5 12.6 14.4 8.9 5.1 8.6 5.4 3.2 10.2 37.4 24.2
0.0 0.0 0.0 0.0 0.0 0.0 0.0 0.0 0.0 0.0 0.0 0.0 12.5 21.1 0.1 20.4 12.2 5.0 4.1 5.8 6.1 5.7 0.5 0.2 3.5 3.4 7.1 12.9 4.7 2.6 1.3 0.4 0.0 0.2 0.0 0.5 16.3 6.2 4.0 4.0 2.1 2.6 5.7 3.3 4.9 5.7 13.7
0.0 0.0 0.0 0.0 0.0 0.0 0.0 0.0 0.0 0.0 0.0 0.0 47.0 8.6 1.8 2.0 0.1 2.9 10.5 14.6 7.1 1.4 5.0 2.1 3.7 1.7 2.9 10.0 4.6 8.2 3.1 0.4 2.7 0.0 0.2 0.1 8.0 7.2 6.9 3.3 1.2 6.9 7.5 3.8 2.7 4.3 5.0
0.0 0.0 0.0 0.0 0.0 0.0 0.0 0.0 0.0 0.0 0.0 0.0 1.4 0.0 3.5 3.0 1.8 5.9 4.7 2.7 3.7 2.7 0.3 0.7 1.7 4.4 4.9 2.1 0.3 0.2 0.5 0.8 2.0 4.1 3.2 3.3 6.3 6.7 10.4 0.8 1.7 11.4 9.7 5.8 2.7 1.0 1.1
0.0 0.0 0.0 0.0 0.0 0.0 0.0 0.0 0.0 0.0 0.0 0.0 0.0 0.6 13.9 16.5 5.2 2.5 0.3 1.0 1.8 1.5 5.6 1.1 0.3 2.0 0.0 0.0 0.0 0.0 0.2 0.1 0.1 0.8 1.0 5.8 5.6 8.1 9.8 5.4 24.7 6.2 1.3 0.5 0.2 0.4 0.4
0.0 0.0 0.0 0.0 0.0 0.0 0.0 0.0 0.0 0.0 0.0 0.0 0.0 0.1 10.1 17.1 1.5 2.0 2.0 2.8 0.2 0.5 2.0 1.3 0.6 0.0 0.0 0.6 3.5 5.8 3.0 1.8 0.7 0.1 0.3 1.0 4.8 15.5 16.4 6.7 4.2 1.4 0.8 0.6 0.5 1.1 0.6
0.0 0.0 0.0 0.0 0.0 0.0 0.0 0.0 0.0 0.0 0.0 0.0 0.0 0.0 5.9 21.2 5.9 0.4 4.7 3.2 5.4 2.9 3.8 1.8 0.0 0.0 0.0 3.1 10.7 14.1 6.4 2.1 1.4 0.5 0.0 0.3 2.0 17.5 19.2 18.1 8.4 2.8 0.5 0.0 0.0 2.2 0.4
0.0 0.0 0.0 0.0 0.0 0.0 0.0 0.0 0.0 0.0 0.0 0.0 0.0 0.0 2.4 24.8 0.2 0.4 2.3 4.2 2.0 2.2 3.5 0.8 0.4 0.1 0.5 8.4 14.2 12.0 6.9 2.6 6.2 3.9 2.8 7.0 11.4 27.7 23.2 30.1 8.6 1.5 0.6 0.2 5.9 8.3 0.8
0.0 0.0 0.0 0.0 0.0 0.0 0.0 0.0 0.0 0.0 0.0 0.0 0.0 0.0 0.0 10.5 0.4 0.0 0.0 0.2 0.3 0.5 5.1 1.9 6.5 4.4 8.7 19.1 16.6 11.5 10.2 7.4 5.1 1.7 5.5 9.2 15.1 13.9 16.9 29.0 24.4 1.2 1.0 4.0 4.0 0.5 0.5
0.0 0.0 0.0 0.0 0.0 0.0 0.0 0.0 0.0 0.0 0.0 0.0 2.1 0.0 0.0 1.5 0.0 0.0 0.0 0.0 0.0 0.0 0.4 2.0 5.5 6.3 9.1 19.6 13.5 5.8 7.1 7.8 4.9 13.5 0.9 9.3 4.9 9.3 8.5 17.0 6.1 3.9 3.7 1.0 0.4 1.2 1.0

GFSGBSN_prec_kuchsnow_231.txt.gz
Snowfall_Accumulation
0.0 0.0 0.0 0.0 0.0 0.0 0.0 0.0 0.0 0.0 0.0 0.0 0.0 0.0 0.0 0.0 0.0 0.0 0.0 0.0 0.0 0.0 0.0 0.0 0.0 0.0 0.0 0.0 0.0 0.0 0.0 0.0 0.0 0.0 0.0 0.0 0.0 0.0 0.0 0.0 0.0 0.0 0.0 0.0 0.0 0.0 0.0
0.0 0.0 0.0 0.0 0.0 0.0 0.0 0.0 0.0 0.0 0.0 0.0 0.0 0.0 0.0 0.0 0.0 0.0 0.0 0.0 0.0 0.0 0.0 0.0 0.0 0.0 0.0 0.0 0.0 0.0 0.0 0.0 0.0 0.0 0.0 0.0 0.0 0.0 0.0 0.0 0.0 0.0 0.0 0.0 0.0 0.0 0.0
0.0 0.0 0.0 0.0 0.0 0.0 0.0 0.0 0.0 0.0 0.0 0.0 0.0 0.0 0.0 0.0 0.0 0.0 0.0 0.0 0.0 0.0 0.0 0.0 0.0 0.0 0.0 0.0 0.0 0.0 0.0 0.0 0.0 0.0 0.0 0.0 0.0 0.0 0.0 0.0 0.0 0.0 0.0 0.0 0.0 0.0 0.0
0.0 0.0 0.0 0.0 0.0 0.0 0.0 0.0 0.0 0.0 0.0 0.0 0.0 0.0 0.0 0.0 0.0 0.0 0.0 0.0 0.0 0.0 0.0 0.0 0.0 0.0 0.0 0.0 0.0 0.0 0.0 0.0 0.0 0.0 0.0 0.0 0.0 0.0 0.0 0.0 0.0 0.0 0.0 0.0 0.0 0.0 0.0
0.0 0.0 0.0 0.0 0.0 0.0 0.0 0.0 0.0 0.0 0.0 0.0 0.0 0.0 0.0 0.0 0.0 0.0 0.0 0.0 0.0 0.0 0.0 0.0 0.0 0.0 0.0 0.0 0.0 0.0 0.0 0.0 0.0 0.0 0.0 0.0 0.0 0.0 0.0 0.0 0.0 0.0 0.0 0.0 0.0 0.0 0.0
0.0 0.0 0.0 0.0 0.0 0.0 0.0 0.0 0.0 0.0 0.0 0.0 0.0 0.0 0.0 0.0 0.0 0.0 0.0 0.0 0.0 0.0 0.0 0.0 0.0 0.0 0.0 0.0 0.0 0.0 0.0 0.0 0.0 0.0 0.0 0.0 0.0 0.0 0.0 0.0 0.0 0.0 0.0 0.0 0.0 0.0 0.0
0.0 0.0 0.0 0.0 0.0 0.0 0.0 0.0 0.0 0.0 0.0 0.0 0.0 0.0 0.0 0.0 0.0 0.0 0.0 0.0 0.0 0.0 0.0 0.0 0.0 0.0 0.0 0.0 0.0 0.0 0.0 0.0 0.0 0.0 0.0 0.0 0.0 0.0 0.0 0.0 0.0 0.0 0.0 0.0 0.0 0.0 0.0
0.0 0.0 0.0 0.0 0.0 0.0 0.0 0.0 0.0 0.0 0.0 0.0 0.0 0.0 0.0 0.0 0.0 0.0 0.0 0.0 0.0 0.0 0.0 0.0 0.0 0.0 0.0 0.0 0.0 0.0 0.0 0.0 0.0 0.0 0.0 0.0 0.0 0.0 0.0 0.0 0.0 0.0 0.0 0.0 0.0 0.0 0.0
0.0 0.0 0.0 0.0 0.0 0.0 0.0 0.0 0.0 0.0 0.0 0.0 0.0 0.0 0.0 0.0 0.0 0.0 0.0 0.0 0.0 0.0 0.1 0.0 0.0 0.0 0.0 0.0 0.0 0.0 0.0 0.0 0.0 0.0 0.0 0.0 0.0 0.0 0.0 0.0 0.0 0.0 0.0 0.0 0.0 0.0 0.0
0.0 0.0 0.0 0.0 0.0 0.0 0.0 0.0 0.0 0.0 0.0 0.0 0.0 0.0 0.0 0.0 0.0 0.0 0.0 0.0 0.0 0.0 2.6 0.0 0.0 0.0 0.0 0.0 0.0 0.0 0.0 0.0 0.0 0.0 0.0 0.0 0.0 0.0 0.0 0.0 0.0 2.6 0.0 0.0 0.0 0.0 1.1
0.0 0.0 0.0 0.0 0.0 0.0 0.0 0.0 0.0 0.0 0.0 0.0 0.0 0.0 0.0 0.0 0.0 0.0 0.0 0.0 0.0 0.0 82.1 0.0 0.0 0.0 0.0 0.0 0.0 0.0 0.0 0.0 0.0 0.0 0.0 0.1 0.0 0.0 0.1 0.1 0.0 0.0 0.0 0.0 0.0 2.5 3.6
0.0 0.0 0.0 0.0 0.0 0.0 0.0 0.0 0.0 0.0 0.0 0.0 0.0 0.0 0.0 0.0 0.0 0.0 0.0 0.0 0.0 14.0 71.4 0.0 0.0 0.0 0.0 0.0 0.0 0.0 0.0 0.0 0.0 0.0 0.0 0.0 0.0 0.0 0.1 0.0 0.0 0.0 0.0 0.0 0.0 0.6 12.8
0.0 0.0 0.0 0.0 0.0 0.0 0.0 0.0 0.0 0.0 0.0 0.0 0.0 0.0 0.0 0.0 0.0 0.0 0.0 0.0 35.2 69.6 0.0 0.0 0.0 0.0 0.0 0.0 0.0 0.0 0.0 0.0 2.1 6.2 0.8 0.0 0.0 0.0 0.0 0.0 0.0 0.0 0.7 22.6 26.5 25.6 16.7
0.0 0.0 0.0 0.0 0.0 0.0 0.0 0.0 0.0 0.0 0.0 0.0 0.0 0.0 0.0 0.0 0.0 0.0 0.0 3.9 82.4 6.5 0.0 0.0 0.0 0.0 0.4 0.2 0.0 0.0 0.0 1.1 2.6 5.1 6.6 5.8 6.5 1.3 0.5 0.3 1.7 0.5 0.3 8.3 34.1 18.3 4.8
0.0 0.0 0.0 0.0 0.0 0.0 0.0 0.0 0.0 0.0 0.0 0.0 0.0 0.0 0.0 0.0 0.0 0.0 1.9 64.6 23.0 1.5 0.5 0.8 0.0 0.6 1.4 0.5 1.4 0.6 0.1 2.3 5.0 7.8 23.0 25.8 12.0 2.8 2.0 0.7 0.0 0.5 0.9 0.0 5.8 0.9 13.8
0.0 0.0 0.0 0.0 0.0 0.0 0.0 0.0 0.0 0.0 0.0 0.0 0.0 0.0 0.0 0.0 0.0 0.0 18.3 32.6 5.6 0.8 1.3 1.5 10.3 6.2 9.8 2.7 5.5 7.4 7.6 8.0 8.5 7.9 6.3 24.9 35.0 7.7 1.6 0.0 0.0 2.3 0.6 4.4 5.4 59.7 49.6
0.0 0.0 0.0 0.0 0.0 0.0 0.0 0.0 0.0 0.0 0.0 0.0 0.0 0.7 0.0 0.0 0.0 1.5 49.3 13.7 1.1 0.0 0.0 3.8 12.3 12.7 6.7 8.5 6.4 8.1 5.7 1.4 1.1 3.9 2.8 9.1 19.4 7.0 2.5 8.4 14.5 11.6 15.4 14.3 20.0 40.1 47.7
0.0 0.0 0.0 0.0 0.0 0.0 0.0 0.0 0.0 0.0 0.0 0.0 0.0 17.6 0.0 0.0 10.6 24.5 19.7 3.8 0.0 0.0 0.0 1.1 2.5 5.4 9.0 8.6 10.0 13.5 7.8 1.8 0.0 0.6 2.7 1.1 11.4 10.3 2.9 0.6 0.6 3.2 13.2 20.3 45.9 45.0 34.9
0.0 0.0 0.0 0.0 0.0 0.0 0.0 0.0 0.0 0.0 0.0 0.0 6.6 4.3 0.0 0.0 30.6 15.1 2.7 1.6 0.9 1.6 0.8 2.2 4.2 4.9 6.5 11.4 15.4 5.9 4.5 0.0 0.0 0.8 5.8 2.6 14.2 14.4 5.7 0.9 0.2 3.2 3.3 6.9 19.8 26.7 40.8
0.0 0.0 0.0 0.0 0.0 0.0 0.0 0.0 0.0 0.0 0.0 0.0 5.2 29.1 3.8 2.7 1.5 3.0 4.8 4.3 4.4 0.0 0.7 0.1 3.4 4.0 5.8 4.4 1.9 6.8 4.4 0.2 0.0 0.0 0.0 0.0 10.7 12.9 14.4 10.1 5.4 8.6 5.4 3.2 10.2 37.8 24.8
0.0 0.0 0.0 0.0 0.0 0.0 0.0 0.0 0.0 0.0 0.0 0.0 12.5 21.1 0.1 20.4 12.2 5.0 4.1 5.8 6.1 5.7 0.5 0.2 3.5 3.4 7.1 12.9 4.7 2.6 1.3 0.4 0.0 0.2 0.0 0.5 16.3 6.2 4.0 4.0 2.1 2.6 5.7 3.3 5.0 5.7 14.3
0.0 0.0 0.0 0.0 0.0 0.0 0.0 0.0 0.0 0.0 0.0 0.0 47.0 8.6 1.8 2.0 0.1 2.9 10.5 14.6 7.1 1.4 5.0 2.1 3.7 1.7 2.9 10.0 4.6 8.2 3.1 0.4 2.7 0.0 0.2 0.1 8.0 7.2 6.9 3.3 1.2 6.9 7.5 3.8 2.7 4.3 5.0
0.0 0.0 0.0 0.0 0.0 0.0 0.0 0.0 0.0 0.0 0.0 0.0 1.4 0.0 3.5 3.0 1.8 5.9 4.7 2.7 3.7 2.7 0.3 0.7 1.7 4.4 4.9 2.1 0.3 0.2 0.5 0.8 2.0 4.1 3.2 3.3 6.3 6.7 10.4 0.8 1.7 11.4 9.9 5.8 2.7 1.0 1.1
0.0 0.0 0.0 0.0 0.0 0.0 0.0 0.0 0.0 0.0 0.0 0.0 0.0 0.6 13.9 16.5 5.2 2.5 0.3 1.0 1.8 1.5 5.6 1.1 0.3 2.0 0.0 0.0 0.0 0.0 0.2 0.1 0.1 0.8 1.0 5.8 5.6 8.1 9.8 5.4 24.7 8.4 1.4 0.5 0.2 0.5 0.4
0.0 0.0 0.0 0.0 0.0 0.0 0.0 0.0 0.0 0.0 0.0 0.0 0.0 0.1 10.1 17.1 1.5 2.0 2.0 2.8 0.2 0.5 2.0 1.3 0.6 0.0 0.0 0.6 3.5 5.8 3.0 1.8 0.7 0.1 0.3 1.0 4.8 15.5 16.4 6.7 4.2 2.4 1.2 0.9 0.9 1.3 0.8
0.0 0.0 0.0 0.0 0.0 0.0 0.0 0.0 0.0 0.0 0.0 0.0 0.0 0.0 5.9 21.2 5.9 0.4 4.7 3.2 5.4 2.9 3.8 1.8 0.0 0.0 0.0 3.1 10.7 14.1 6.5 2.1 1.4 0.5 0.0 0.3 2.0 17.5 19.2 18.1 9.3 2.8 0.5 0.1 0.0 2.8 0.5
0.0 0.0 0.0 0.0 0.0 0.0 0.0 0.0 0.0 0.0 0.0 0.0 0.0 0.0 2.4 24.8 0.2 0.4 2.3 4.2 2.0 2.2 3.5 0.8 0.4 0.1 0.5 8.4 14.2 12.0 7.6 3.3 7.2 4.3 2.8 7.0 11.4 27.7 23.2 30.1 8.6 1.5 0.6 0.2 7.1 9.1 0.8
0.0 0.0 0.0 0.0 0.0 0.0 0.0 0.0 0.0 0.0 0.0 0.0 0.0 0.0 0.0 10.5 0.4 0.0 0.0 0.2 0.3 0.5 5.1 1.9 6.5 4.4 8.7 19.1 16.6 11.5 10.2 7.4 5.1 1.7 5.5 9.4 15.1 13.9 16.9 29.3 25.4 1.2 1.0 4.0 4.6 0.5 0.5
0.0 0.0 0.0 0.0 0.0 0.0 0.0 0.0 0.0 0.0 0.0 0.0 2.1 0.0 0.0 1.5 0.0 0.0 0.0 0.0 0.0 0.0 0.4 2.0 5.5 6.3 9.1 19.6 13.5 5.8 7.1 7.8 4.9 13.5 0.9 9.3 4.9 9.9 9.6 17.7 6.1 3.9 3.7 1.0 0.4 1.2 1.0

GFSGBSN_prec_kuchsnow_234.txt.gz
Snowfall_Accumulation
0.0 0.0 0.0 0.0 0.0 0.0 0.0 0.0 0.0 0.0 0.0 0.0 0.0 0.0 0.0 0.0 0.0 0.0 0.0 0.0 0.0 0.0 0.0 0.0 0.0 0.0 0.0 0.0 0.0 0.0 0.0 0.0 0.0 0.0 0.0 0.0 0.0 0.0 0.0 0.0 0.0 0.0 0.0 0.0 0.0 0.0 0.0
0.0 0.0 0.0 0.0 0.0 0.0 0.0 0.0 0.0 0.0 0.0 0.0 0.0 0.0 0.0 0.0 0.0 0.0 0.0 0.0 0.0 0.0 0.0 0.0 0.0 0.0 0.0 0.0 0.0 0.0 0.0 0.0 0.0 0.0 0.0 0.0 0.0 0.0 0.0 0.0 0.0 0.0 0.0 0.0 0.0 0.0 0.0
0.0 0.0 0.0 0.0 0.0 0.0 0.0 0.0 0.0 0.0 0.0 0.0 0.0 0.0 0.0 0.0 0.0 0.0 0.0 0.0 0.0 0.0 0.0 0.0 0.0 0.0 0.0 0.0 0.0 0.0 0.0 0.0 0.0 0.0 0.0 0.0 0.0 0.0 0.0 0.0 0.0 0.0 0.0 0.0 0.0 0.0 0.0
0.0 0.0 0.0 0.0 0.0 0.0 0.0 0.0 0.0 0.0 0.0 0.0 0.0 0.0 0.0 0.0 0.0 0.0 0.0 0.0 0.0 0.0 0.0 0.0 0.0 0.0 0.0 0.0 0.0 0.0 0.0 0.0 0.0 0.0 0.0 0.0 0.0 0.0 0.0 0.0 0.0 0.0 0.0 0.0 0.0 0.0 0.0
0.0 0.0 0.0 0.0 0.0 0.0 0.0 0.0 0.0 0.0 0.0 0.0 0.0 0.0 0.0 0.0 0.0 0.0 0.0 0.0 0.0 0.0 0.0 0.0 0.0 0.0 0.0 0.0 0.0 0.0 0.0 0.0 0.0 0.0 0.0 0.0 0.0 0.0 0.0 0.0 0.0 0.0 0.0 0.0 0.0 0.0 0.0
0.0 0.0 0.0 0.0 0.0 0.0 0.0 0.0 0.0 0.0 0.0 0.0 0.0 0.0 0.0 0.0 0.0 0.0 0.0 0.0 0.0 0.0 0.0 0.0 0.0 0.0 0.0 0.0 0.0 0.0 0.0 0.0 0.0 0.0 0.0 0.0 0.0 0.0 0.0 0.0 0.4 0.0 0.0 0.0 0.0 0.0 0.0
0.0 0.0 0.0 0.0 0.0 0.0 0.0 0.0 0.0 0.0 0.0 0.0 0.0 0.0 0.0 0.0 0.0 0.0 0.0 0.0 0.0 0.0 0.0 0.0 0.0 0.0 0.0 0.0 0.0 0.0 0.0 0.0 0.0 0.0 0.0 0.0 0.0 0.0 0.0 0.0 0.0 0.1 0.2 0.0 0.0 0.0 0.0
0.0 0.0 0.0 0.0 0.0 0.0 0.0 0.0 0.0 0.0 0.0 0.0 0.0 0.0 0.0 0.0 0.0 0.0 0.0 0.0 0.0 0.0 0.0 0.0 0.0 0.0 0.0 0.0 0.0 0.0 0.0 0.0 0.0 0.0 0.0 0.0 0.0 0.0 0.0 0.0 0.0 0.0 0.0 0.2 0.0 0.0 0.0
0.0 0.0 0.0 0.0 0.0 0.0 0.0 0.0 0.0 0.0 0.0 0.0 0.0 0.0 0.0 0.0 0.0 0.0 0.0 0.0 0.0 0.0 0.1 0.0 0.0 0.0 0.0 0.0 0.0 0.0 0.0 0.0 0.0 0.0 0.0 0.0 0.0 0.0 0.0 0.0 0.0 0.0 0.0 0.0 0.0 0.0 0.0
0.0 0.0 0.0 0.0 0.0 0.0 0.0 0.0 0.0 0.0 0.0 0.0 0.0 0.0 0.0 0.0 0.0 0.0 0.0 0.0 0.0 0.0 2.6 0.0 0.0 0.0 0.0 0.0 0.0 0.0 0.0 0.0 0.0 0.0 0.0 0.0 0.0 0.0 0.0 0.0 0.0 2.6 0.0 0.0 0.0 0.0 1.1
0.0 0.0 0.0 0.0 0.0 0.0 0.0 0.0 0.0 0.0 0.0 0.0 0.0 0.0 0.0 0.0 0.0 0.0 0.0 0.0 0.0 0.0 82.1 0.0 0.0 0.0 0.0 0.0 0.0 0.0 0.0 0.0 0.0 0.0 0.0 0.1 0.0 0.0 0.1 0.1 0.0 0.0 0.0 0.0 0.0 2.5 3.6
0.0 0.0 0.0 0.0 0.0 0.0 0.0 0.0 0.0 0.0 0.0 0.0 0.0 0.0 0.0 0.0 0.0 0.0 0.0 0.0 0.0 14.0 71.4 0.0 0.0 0.0 0.0 0.0 0.0 0.0 0.0 0.0 0.0 0.0 0.0 0.0 0.0 0.0 0.1 0.0 0.0 0.0 0.0 0.0 0.2 0.6 15.2
0.0 0.0 0.0 0.0 0.0 0.0 0.0 0.0 0.0 0.0 0.0 0.0 0.0 0.0 0.0 0.0 0.0 0.0 0.0 0.0 35.2 69.6 0.0 0.0 0.0 0.0 0.0 0.0 0.0 0.0 0.0 0.0 2.1 6.2 0.8 0.0 0.0 0.0 0.0 0.0 0.0 0.0 0.7 23.9 27.2 26.3 17.8
0.0 0.0 0.0 0.0 0.0 0.0 0.0 0.0 0.0 0.0 0.0 0.0 0.0 0.0 0.0 0.0 0.0 0.0 0.0 3.9 82.4 6.5 0.0 0.0 0.0 0.0 0.4 0.2 0.0 0.0 0.0 1.1 2.6 5.1 6.6 5.8 6.5 1.3 0.5 0.3 1.7 0.5 1.2 10.1 35.0 18.3 4.8
0.0 0.0 0.0 0.0 0.0 0.0 0.0 0.0 0.0 0.0 0.0 0.0 0.0 0.0 0.0 0.0 0.0 0.0 1.9 64.6 23.0 1.5 0.5 0.8 0.0 0.6 1.4 0.5 1.4 0.6 0.1 2.3 5.0 7.8 24.2 27.1 12.0 2.8 2.0 0.7 0.1 1.6 2.5 0.0 7.5 1.5 15.5
0.0 0.0 0.0 0.0 0.0 0.0 0.0 0.0 0.0 0.0 0.0 0.0 0.0 0.0 0.0 0.0 0.0 0.0 18.3 32.6 5.6 0.8 1.3 1.5 10.3 6.2 9.8 2.7 5.5 7.4 7.6 8.0 8.5 7.9 6.7 27.1 37.2 7.7 1.6 0.0 0.0 3.5 1.2 7.4 8.2 60.6 50.0
0.0 0.0 0.0 0.0 0.0 0.0 0.0 0.0 0.0 0.0 0.0 0.0 0.0 0.7 0.0 0.0 0.0 1.5 49.3 13.7 1.1 0.0 0.0 3.8 12.3 12.7 6.7 8.5 6.4 8.1 5.7 1.4 1.1 3.9 2.8 10.6 21.5 7.0 2.5 8.4 15.5 12.5 16.8 16.0 23.9 42.1 47.7
0.0 0.0 0.0 0.0 0.0 0.0 0.0 0.0 0.0 0.0 0.0 0.0 0.0 17.6 0.0 0.0 10.6 24.5 19.7 3.8 0.0 0.0 0.0 1.1 2.5 5.4 9.0 8.6 10.0 13.5 7.8 1.8 0.0 0.6 2.7 1.8 13.5 10.3 2.9 0.6 0.6 3.3 14.3 22.4 48.9 49.6 36.3
0.0 0.0 0.0 0.0 0.0 0.0 0.0 0.0 0.0 0.0 0.0 0.0 6.6 4.3 0.0 0.0 30.6 15.1 2.7 1.6 0.9 1.6 0.8 2.2 4.2 4.9 6.5 11.4 15.5 5.9 4.5 0.0 0.0 0.8 5.8 3.4 14.2 14.4 5.7 0.9 0.2 3.2 3.3 7.3 20.5 28.1 43.0
0.0 0.0 0.0 0.0 0.0 0.0 0.0 0.0 0.0 0.0 0.0 0.0 5.2 29.1 3.8 2.7 1.5 3.0 4.8 4.3 4.4 0.0 0.7 0.1 3.4 4.0 5.8 4.4 1.9 6.8 4.4 0.2 0.0 0.0 0.0 0.0 10.7 13.3 15.1 10.4 5.4 8.6 5.4 3.3 10.2 39.0 26.1
0.0 0.0 0.0 0.0 0.0 0.0 0.0 0.0 0.0 0.0 0.0 0.0 12.5 21.1 0.1 20.4 12.2 5.0 4.1 5.8 6.1 5.7 0.5 0.2 3.5 3.4 7.1 12.9 4.7 2.6 1.3 0.4 0.0 0.2 0.0 0.5 16.3 6.2 4.0 4.0 2.1 2.6 5.8 3.4 5.4 6.4 15.6
0.0 0.0 0.0 0.0 0.0 0.0 0.0 0.0 0.0 0.0 0.0 0.0 47.0 8.6 1.8 2.0 0.1 2.9 10.5 14.6 7.1 1.4 5.0 2.1 3.7 1.7 2.9 10.0 4.6 8.2 3.1 0.4 2.7 0.0 0.2 0.1 8.0 7.2 6.9 3.3 1.2 6.9 7.5 3.8 3.0 4.9 5.8
0.0 0.0 0.0 0.0 0.0 0.0 0.0 0.0 0.0 0.0 0.0 0.0 1.4 0.0 3.5 3.0 1.8 5.9 4.7 2.7 3.7 2.7 0.3 0.7 1.7 4.4 4.9 2.1 0.3 0.2 0.5 0.8 2.0 4.1 3.2 3.3 6.3 6.7 10.4 0.8 1.7 11.4 11.0 6.5 3.4 1.3 2.3
0.0 0.0 0.0 0.0 0.0 0.0 0.0 0.0 0.0 0.0 0.0 0.0 0.0 0.6 13.9 16.5 5.2 2.5 0.3 1.0 1.8 1.5 5.6 1.1 0.3 2.0 0.0 0.0 0.0 0.0 0.2 0.1 0.1 0.8 1.0 5.8 5.6 8.1 9.8 5.4 24.9 10.4 1.6 1.0 1.0 1.0 1.4
0.0 0.0 0.0 0.0 0.0 0.0 0.0 0.0 0.0 0.0 0.0 0.0 0.0 0.1 10.1 17.1 1.5 2.0 2.0 2.8 0.2 0.5 2.0 1.3 0.6 0.0 0.0 0.6 3.5 5.8 3.0 1.8 0.7 0.1 0.3 1.0 4.8 15.5 16.4 6.7 4.2 2.4 1.8 1.4 1.8 2.1 1.2
0.0 0.0 0.0 0.0 0.0 0.0 0.0 0.0 0.0 0.0 0.0 0.0 0.0 0.0 5.9 21.2 5.9 0.4 4.7 3.2 5.4 2.9 3.8 1.8 0.0 0.0 0.0 3.1 10.7 14.1 6.7 2.1 1.4 0.5 0.0 0.3 2.0 17.5 19.2 18.1 9.7 2.8 0.5 0.1 0.0 3.6 0.8
0.0 0.0 0.0 0.0 0.0 0.0 0.0 0.0 0.0 0.0 0.0 0.0 0.0 0.0 2.4 24.8 0.2 0.4 2.3 4.2 2.0 2.2 3.5 0.8 0.4 0.1 0.5 8.4 14.2 12.0 7.6 3.3 7.2 4.3 2.8 7.0 11.4 27.7 23.2 30.1 8.6 1.5 0.6 0.2 8.4 9.7 0.8
0.0 0.0 0.0 0.0 0.0 0.0 0.0 0.0 0.0 0.0 0.0 0.0 0.0 0.0 0.0 10.5 0.4 0.0 0.0 0.2 0.3 0.5 5.1 1.9 6.5 4.4 8.7 19.1 16.6 11.5 10.2 7.4 5.1 1.7 5.5 9.8 15.3 13.9 16.9 29.3 25.4 1.2 1.0 4.0 4.6 0.5 0.5
0.0 0.0 0.0 0.0 0.0 0.0 0.0 0.0 0.0 0.0 0.0 0.0 2.1 0.0 0.0 1.5 0.0 0.0 0.0 0.0 0.0 0.0 0.4 2.0 5.5 6.3 9.1 19.6 13.5 5.8 7.1 7.8 4.9 13.5 0.9 9.3 4.9 9.9 9.6 17.7 6.1 3.9 3.7 1.0 0.4 1.2 1.0

GFSGBSN_prec_kuchsnow_237.txt.gz
Snowfall_Accumulation
0.0 0.0 0.0 0.0 0.0 0.0 0.0 0.0 0.0 0.0 0.0 0.0 0.0 0.0 0.0 0.0 0.0 0.0 0.0 0.0 0.0 0.0 0.0 0.0 0.0 0.0 0.0 0.0 0.0 0.0 0.0 0.0 0.0 0.0 0.0 0.0 0.0 0.0 0.0 0.0 0.0 0.0 0.0 0.0 0.0 0.0 0.0
0.0 0.0 0.0 0.0 0.0 0.0 0.0 0.0 0.0 0.0 0.0 0.0 0.0 0.0 0.0 0.0 0.0 0.0 0.0 0.0 0.0 0.0 0.0 0.0 0.0 0.0 0.0 0.0 0.0 0.0 0.0 0.0 0.0 0.0 0.0 0.0 0.0 0.0 0.0 0.0 0.0 0.0 0.0 0.0 0.0 0.0 0.0
0.0 0.0 0.0 0.0 0.0 0.0 0.0 0.0 0.0 0.0 0.0 0.0 0.0 0.0 0.0 0.0 0.0 0.0 0.0 0.0 0.0 0.0 0.0 0.0 0.0 0.0 0.0 0.0 0.0 0.0 0.0 0.0 0.0 0.0 0.0 0.0 0.0 0.0 0.0 0.0 0.0 0.0 0.0 0.0 0.0 0.0 0.0
0.0 0.0 0.0 0.0 0.0 0.0 0.0 0.0 0.0 0.0 0.0 0.0 0.0 0.0 0.0 0.0 0.0 0.0 0.0 0.0 0.0 0.0 0.0 0.0 0.0 0.0 0.0 0.0 0.0 0.0 0.0 0.0 0.0 0.0 0.0 0.0 0.0 0.0 0.0 0.0 0.0 0.0 0.0 0.0 0.0 0.0 0.0
0.0 0.0 0.0 0.0 0.0 0.0 0.0 0.0 0.0 0.0 0.0 0.0 0.0 0.0 0.0 0.0 0.0 0.0 0.0 0.0 0.0 0.0 0.0 0.0 0.0 0.0 0.0 0.0 0.0 0.0 0.0 0.0 0.0 0.0 0.0 0.0 0.0 0.0 0.0 0.0 0.0 0.0 0.0 0.0 0.0 0.0 0.0
0.0 0.0 0.0 0.0 0.0 0.0 0.0 0.0 0.0 0.0 0.0 0.0 0.0 0.0 0.0 0.0 0.0 0.0 0.0 0.0 0.0 0.0 0.0 0.0 0.0 0.0 0.0 0.0 0.0 0.0 0.0 0.0 0.0 0.0 0.0 0.0 0.0 0.0 0.0 0.0 0.4 0.0 0.0 0.0 0.0 0.0 0.0
0.0 0.0 0.0 0.0 0.0 0.0 0.0 0.0 0.0 0.0 0.0 0.0 0.0 0.0 0.0 0.0 0.0 0.0 0.0 0.0 0.0 0.0 0.0 0.0 0.0 0.0 0.0 0.0 0.0 0.0 0.0 0.0 0.0 0.0 0.0 0.0 0.0 0.0 0.0 0.0 0.0 0.1 0.2 0.0 0.0 0.0 0.0
0.0 0.0 0.0 0.0 0.0 0.0 0.0 0.0 0.0 0.0 0.0 0.0 0.0 0.0 0.0 0.0 0.0 0.0 0.0 0.0 0.0 0.0 0.0 0.0 0.0 0.0 0.0 0.0 0.0 0.0 0.0 0.0 0.0 0.0 0.0 0.0 0.0 0.0 0.0 0.0 0.0 0.0 0.0 0.2 0.0 0.0 0.0
0.0 0.0 0.0 0.0 0.0 0.0 0.0 0.0 0.0 0.0 0.0 0.0 0.0 0.0 0.0 0.0 0.0 0.0 0.0 0.0 0.0 0.0 0.1 0.0 0.0 0.0 0.0 0.0 0.0 0.0 0.0 0.0 0.0 0.0 0.0 0.0 0.0 0.0 0.0 0.0 0.0 0.0 0.0 0.0 0.0 0.0 0.0
0.0 0.0 0.0 0.0 0.0 0.0 0.0 0.0 0.0 0.0 0.0 0.0 0.0 0.0 0.0 0.0 0.0 0.0 0.0 0.0 0.0 0.0 2.6 0.0 0.0 0.0 0.0 0.0 0.0 0.0 0.0 0.0 0.0 0.0 0.0 0.0 0.0 0.0 0.0 0.0 0.0 2.6 0.0 0.0 0.0 0.0 1.1
0.0 0.0 0.0 0.0 0.0 0.0 0.0 0.0 0.0 0.0 0.0 0.0 0.0 0.0 0.0 0.0 0.0 0.0 0.0 0.0 0.0 0.0 82.1 0.0 0.0 0.0 0.0 0.0 0.0 0.0 0.0 0.0 0.0 0.0 0.0 0.1 0.0 0.0 0.1 0.1 0.0 0.0 0.0 0.0 0.0 2.6 4.0
0.0 0.0 0.0 0.0 0.0 0.0 0.0 0.0 0.0 0.0 0.0 0.0 0.0 0.0 0.0 0.0 0.0 0.0 0.0 0.0 0.0 14.0 71.4 0.0 0.0 0.0 0.0 0.0 0.0 0.0 0.0 0.0 0.0 0.0 0.0 0.0 0.0 0.0 0.1 0.0 0.0 0.0 0.0 0.0 0.2 0.8 16.5
0.0 0.0 0.0 0.0 0.0 0.0 0.0 0.0 0.0 0.0 0.0 0.0 0.0 0.0 0.0 0.0 0.0 0.0 0.0 0.0 35.2 69.6 0.0 0.0 0.0 0.0 0.0 0.0 0.0 0.0 0.0 0.0 2.1 6.3 0.8 0.0 0.0 0.0 0.0 0.0 0.0 0.0 0.9 25.2 27.2 26.8 17.8
0.0 0.0 0.0 0.0 0.0 0.0 0.0 0.0 0.0 0.0 0.0 0.0 0.0 0.0 0.0 0.0 0.0 0.0 0.0 3.9 82.4 6.5 0.0 0.0 0.0 0.0 0.4 0.2 0.0 0.0 0.0 1.1 2.6 5.1 6.6 5.8 6.5 1.3 0.5 0.3 1.7 0.5 2.0 12.7 38.1 18.5 4.8
0.0 0.0 0.0 0.0 0.0 0.0 0.0 0.0 0.0 0.0 0.0 0.0 0.0 0.0 0.0 0.0 0.0 0.0 1.9 64.6 23.0 1.5 0.5 0.8 0.0 0.6 1.4 0.5 1.4 0.6 0.1 2.3 5.0 7.8 24.7 27.5 12.0 2.8 2.0 0.7 0.1 1.6 4.2 0.5 9.7 1.5 16.1
0.0 0.0 0.0 0.0 0.0 0.0 0.0 0.0 0.0 0.0 0.0 0.0 0.0 0.0 0.0 0.0 0.0 0.0 18.3 32.6 5.6 0.8 1.3 1.5 10.3 6.2 9.8 2.7 5.5 7.4 7.6 8.0 8.5 7.9 6.7 27.1 39.1 7.7 1.6 0.0 0.0 3.5 1.2 8.6 8.2 62.2 50.4
0.0 0.0 0.0 0.0 0.0 0.0 0.0 0.0 0.0 0.0 0.0 0.0 0.0 0.7 0.0 0.0 0.0 1.5 49.3 13.7 1.1 0.0 0.0 3.8 12.3 12.7 6.7 8.5 6.4 8.1 5.7 1.4 1.1 3.9 2.8 10.6 22.2 7.0 2.5 8.4 15.5 12.5 17.6 16.9 24.6 43.3 49.5
0.0 0.0 0.0 0.0 0.0 0.0 0.0 0.0 0.0 0.0 0.0 0.0 0.0 17.6 0.0 0.0 10.6 24.5 19.7 3.8 0.0 0.0 0.0 1.1 2.5 5.4 9.0 8.6 10.0 13.5 7.8 1.8 0.0 0.6 2.7 1.8 14.4 10.3 2.9 0.6 0.6 3.4 14.9 23.8 51.9 51.7 38.1
0.0 0.0 0.0 0.0 0.0 0.0 0.0 0.0 0.0 0.0 0.0 0.0 6.6 4.3 0.0 0.0 30.6 15.1 2.7 1.6 0.9 1.6 0.8 2.2 4.2 4.9 6.5 11.4 15.5 5.9 4.5 0.0 0.0 0.8 5.8 3.4 14.2 14.4 5.7 0.9 0.2 3.2 3.7 8.1 20.5 29.5 46.2
0.0 0.0 0.0 0.0 0.0 0.0 0.0 0.0 0.0 0.0 0.0 0.0 5.2 29.1 3.8 2.7 1.5 3.0 4.8 4.3 4.4 0.0 0.7 0.1 3.4 4.0 5.8 4.4 1.9 6.8 4.4 0.2 0.0 0.0 0.0 0.0 10.7 13.3 15.1 10.4 5.7 10.3 5.6 3.7 11.1 41.1 28.7
0.0 0.0 0.0 0.0 0.0 0.0 0.0 0.0 0.0 0.0 0.0 0.0 12.5 21.1 0.1 20.4 12.2 5.0 4.1 5.8 6.1 5.7 0.5 0.2 3.5 3.4 7.1 12.9 4.7 2.6 1.3 0.4 0.0 0.2 0.0 0.5 16.3 6.2 4.0 4.0 2.4 3.5 6.0 3.8 7.1 8.3 19.2
0.0 0.0 0.0 0.0 0.0 0.0 0.0 0.0 0.0 0.0 0.0 0.0 47.0 8.6 1.8 2.0 0.1 2.9 10.5 14.6 7.1 1.4 5.0 2.1 3.7 1.7 2.9 10.0 4.6 8.2 3.1 0.4 2.7 0.0 0.2 0.1 8.0 7.2 6.9 3.3 1.2 6.9 7.5 3.9 3.9 6.4 8.7
0.0 0.0 0.0 0.0 0.0 0.0 0.0 0.0 0.0 0.0 0.0 0.0 1.4 0.0 3.5 3.0 1.8 5.9 4.7 2.7 3.7 2.7 0.3 0.7 1.7 4.4 4.9 2.1 0.3 0.2 0.5 0.8 2.0 4.1 3.2 3.3 6.3 6.7 10.4 0.8 1.7 11.4 12.1 7.5 4.7 3.3 3.9
0.0 0.0 0.0 0.0 0.0 0.0 0.0 0.0 0.0 0.0 0.0 0.0 0.0 0.6 13.9 16.5 5.2 2.5 0.3 1.0 1.8 1.5 5.6 1.1 0.3 2.0 0.0 0.0 0.0 0.0 0.2 0.1 0.1 0.8 1.0 5.8 5.6 8.1 9.8 5.4 25.0 10.4 1.6 1.4 2.3 2.3 2.6
0.0 0.0 0.0 0.0 0.0 0.0 0.0 0.0 0.0 0.0 0.0 0.0 0.0 0.1 10.1 17.1 1.5 2.0 2.0 2.8 0.2 0.5 2.0 1.3 0.6 0.0 0.0 0.6 3.5 5.8 3.0 1.8 0.7 0.1 0.3 1.0 4.8 15.5 16.4 6.7 4.2 2.4 1.8 2.2 2.7 3.2 1.6
0.0 0.0 0.0 0.0 0.0 0.0 0.0 0.0 0.0 0.0 0.0 0.0 0.0 0.0 5.9 21.2 5.9 0.4 4.7 3.2 5.4 2.9 3.8 1.8 0.0 0.0 0.0 3.1 10.7 14.1 6.7 2.1 1.4 0.5 0.0 0.3 2.0 17.5 19.2 18.1 9.8 2.8 0.5 0.1 0.3 3.9 0.8
0.0 0.0 0.0 0.0 0.0 0.0 0.0 0.0 0.0 0.0 0.0 0.0 0.0 0.0 2.4 24.8 0.2 0.4 2.3 4.2 2.0 2.2 3.5 0.8 0.4 0.1 0.5 8.4 14.2 12.0 7.6 3.3 7.2 4.3 2.8 7.0 11.4 27.7 23.2 30.1 8.6 1.5 0.6 0.2 8.4 9.7 0.8
0.0 0.0 0.0 0.0 0.0 0.0 0.0 0.0 0.0 0.0 0.0 0.0 0.0 0.0 0.0 10.5 0.4 0.0 0.0 0.2 0.3 0.5 5.1 1.9 6.5 4.4 8.7 19.1 16.6 11.5 10.2 7.4 5.1 1.7 5.5 9.8 15.3 13.9 16.9 29.3 25.4 1.2 1.0 4.0 4.6 0.5 0.5
0.0 0.0 0.0 0.0 0.0 0.0 0.0 0.0 0.0 0.0 0.0 0.0 2.1 0.0 0.0 1.5 0.0 0.0 0.0 0.0 0.0 0.0 0.4 2.0 5.5 6.3 9.1 19.6 13.5 5.8 7.1 7.8 4.9 13.5 0.9 9.3 4.9 9.9 9.6 17.7 6.1 3.9 3.7 1.0 0.4 1.2 1.0

GFSGBSN_prec_kuchsnow_243.txt.gz
Snowfall_Accumulation
0.0 0.0 0.0 0.0 0.0 0.0 0.0 0.0 0.0 0.0 0.0 0.0 0.0 0.0 0.0 0.0 0.0 0.0 0.0 0.0 0.0 0.0 0.0 0.0 0.0 0.0 0.0 0.0 0.0 0.0 0.0 0.0 0.0 0.0 0.0 0.0 0.0 0.0 0.0 0.0 0.0 0.0 0.0 0.0 0.0 0.0 0.0
0.0 0.0 0.0 0.0 0.0 0.0 0.0 0.0 0.0 0.0 0.0 0.0 0.0 0.0 0.0 0.0 0.0 0.0 0.0 0.0 0.0 0.0 0.0 0.0 0.0 0.0 0.0 0.0 0.0 0.0 0.0 0.0 0.0 0.0 0.0 0.0 0.0 0.0 0.0 0.0 0.0 0.0 0.0 0.0 0.0 0.0 0.0
0.0 0.0 0.0 0.0 0.0 0.0 0.0 0.0 0.0 0.0 0.0 0.0 0.0 0.0 0.0 0.0 0.0 0.0 0.0 0.0 0.0 0.0 0.0 0.0 0.0 0.0 0.0 0.0 0.0 0.0 0.0 0.0 0.0 0.0 0.0 0.0 0.0 0.0 0.0 0.0 0.0 0.0 0.0 0.0 0.0 0.0 0.0
0.0 0.0 0.0 0.0 0.0 0.0 0.0 0.0 0.0 0.0 0.0 0.0 0.0 0.0 0.0 0.0 0.0 0.0 0.0 0.0 0.0 0.0 0.0 0.0 0.0 0.0 0.0 0.0 0.0 0.0 0.0 0.0 0.0 0.0 0.0 0.0 0.0 0.0 0.0 0.0 0.0 0.0 0.0 0.0 0.0 0.0 0.0
0.0 0.0 0.0 0.0 0.0 0.0 0.0 0.0 0.0 0.0 0.0 0.0 0.0 0.0 0.0 0.0 0.0 0.0 0.0 0.0 0.0 0.0 0.0 0.0 0.0 0.0 0.0 0.0 0.0 0.0 0.0 0.0 0.0 0.0 0.0 0.0 0.0 0.0 0.0 0.0 0.0 0.0 0.0 0.0 0.0 0.0 0.0
0.0 0.0 0.0 0.0 0.0 0.0 0.0 0.0 0.0 0.0 0.0 0.0 0.0 0.0 0.0 0.0 0.0 0.0 0.0 0.0 0.0 0.0 0.0 0.0 0.0 0.0 0.0 0.0 0.0 0.0 0.0 0.0 0.0 0.0 0.0 0.0 0.0 0.0 0.0 0.0 0.4 0.0 0.0 0.0 0.0 0.0 0.0
0.0 0.0 0.0 0.0 0.0 0.0 0.0 0.0 0.0 0.0 0.0 0.0 0.0 0.0 0.0 0.0 0.0 0.0 0.0 0.0 0.0 0.0 0.0 0.0 0.0 0.0 0.0 0.0 0.0 0.0 0.0 0.0 0.0 0.0 0.0 0.0 0.0 0.0 0.0 0.0 0.0 0.1 0.2 0.0 0.0 0.0 0.0
0.0 0.0 0.0 0.0 0.0 0.0 0.0 0.0 0.0 0.0 0.0 0.0 0.0 0.0 0.0 0.0 0.0 0.0 0.0 0.0 0.0 0.0 0.0 0.0 0.0 0.0 0.0 0.0 0.0 0.0 0.0 0.0 0.0 0.0 0.0 0.0 0.0 0.0 0.0 0.0 0.0 0.0 0.0 0.2 0.0 0.0 0.0
0.0 0.0 0.0 0.0 0.0 0.0 0.0 0.0 0.0 0.0 0.0 0.0 0.0 0.0 0.0 0.0 0.0 0.0 0.0 0.0 0.0 0.0 0.1 0.0 0.0 0.0 0.0 0.0 0.0 0.0 0.0 0.0 0.0 0.0 0.0 0.0 0.0 0.0 0.0 0.0 0.0 0.0 0.0 0.0 0.0 0.0 0.0
0.0 0.0 0.0 0.0 0.0 0.0 0.0 0.0 0.0 0.0 0.0 0.0 0.0 0.0 0.0 0.0 0.0 0.0 0.0 0.0 0.0 0.0 2.6 0.0 0.0 0.0 0.0 0.0 0.0 0.0 0.0 0.0 0.0 0.0 0.0 0.0 0.0 0.0 0.0 0.0 0.0 2.6 0.0 0.0 0.0 0.0 1.1
0.0 0.0 0.0 0.0 0.0 0.0 0.0 0.0 0.0 0.0 0.0 0.0 0.0 0.0 0.0 0.0 0.0 0.0 0.0 0.0 0.0 0.0 82.1 0.0 0.0 0.0 0.0 0.0 0.0 0.0 0.0 0.0 0.0 0.0 0.0 0.1 0.0 0.0 0.1 0.1 0.0 0.0 0.0 0.0 0.0 2.6 4.1
0.0 0.0 0.0 0.0 0.0 0.0 0.0 0.0 0.0 0.0 0.0 0.0 0.0 0.0 0.0 0.0 0.0 0.0 0.0 0.0 0.0 14.0 71.4 0.0 0.0 0.0 0.0 0.0 0.0 0.0 0.0 0.0 0.0 0.0 0.0 0.0 0.0 0.0 0.1 0.0 0.0 0.0 0.0 0.0 0.2 0.8 17.5
0.0 0.0 0.0 0.0 0.0 0.0 0.0 0.0 0.0 0.0 0.0 0.0 0.0 0.0 0.0 0.0 0.0 0.0 0.0 0.0 35.2 69.6 0.0 0.0 0.0 0.0 0.0 0.0 0.0 0.0 0.0 0.0 2.1 6.3 0.8 0.0 0.0 0.0 0.0 0.0 0.0 0.0 0.9 26.0 27.4 27.9 19.0
0.0 0.0 0.0 0.0 0.0 0.0 0.0 0.0 0.0 0.0 0.0 0.0 0.0 0.0 0.0 0.0 0.0 0.0 0.0 3.9 82.4 6.5 0.0 0.0 0.0 0.0 0.4 0.2 0.0 0.0 0.0 1.1 2.6 5.1 6.6 5.8 6.5 1.3 0.5 0.3 1.7 0.5 2.1 17.9 42.6 18.8 4.8
0.0 0.0 0.0 0.0 0.0 0.0 0.0 0.0 0.0 0.0 0.0 0.0 0.0 0.0 0.0 0.0 0.0 0.0 1.9 64.6 23.0 1.5 0.5 0.8 0.0 0.6 1.4 0.5 1.4 0.6 0.1 2.3 5.0 7.8 24.7 27.6 12.0 2.8 2.0 0.7 0.1 1.6 4.7 0.5 11.8 1.5 16.8
0.0 0.0 0.0 0.0 0.0 0.0 0.0 0.0 0.0 0.0 0.0 0.0 0.0 0.0 0.0 0.0 0.0 0.0 18.3 32.6 5.6 0.8 1.3 1.5 10.3 6.2 9.8 2.7 5.5 7.4 7.6 8.0 8.5 7.9 6.7 27.1 39.1 7.7 1.6 0.0 0.0 3.5 1.2 9.8 8.9 64.1 52.1
0.0 0.0 0.0 0.0 0.0 0.0 0.0 0.0 0.0 0.0 0.0 0.0 0.0 0.7 0.0 0.0 0.0 1.5 49.3 13.7 1.1 0.0 0.0 3.8 12.3 12.7 6.7 8.5 6.4 8.1 5.7 1.4 1.1 3.9 2.8 10.6 22.6 7.0 2.5 8.4 15.6 12.8 17.8 18.2 25.9 44.0 51.9
0.0 0.0 0.0 0.0 0.0 0.0 0.0 0.0 0.0 0.0 0.0 0.0 0.0 17.6 0.0 0.0 10.6 24.5 19.7 3.8 0.0 0.0 0.0 1.1 2.5 5.4 9.0 8.6 10.0 13.5 7.8 1.8 0.0 0.6 2.7 1.8 14.6 10.4 2.9 0.6 0.6 3.4 16.7 27.3 57.9 54.4 41.1
0.0 0.0 0.0 0.0 0.0 0.0 0.0 0.0 0.0 0.0 0.0 0.0 6.6 4.3 0.0 0.0 30.6 15.1 2.7 1.6 0.9 1.6 0.8 2.2 4.2 4.9 6.5 11.4 15.5 5.9 4.5 0.0 0.0 0.8 5.8 3.4 14.2 14.4 5.7 0.9 0.2 3.8 4.7 9.5 21.3 31.3 50.2
0.0 0.0 0.0 0.0 0.0 0.0 0.0 0.0 0.0 0.0 0.0 0.0 5.2 29.1 3.8 2.7 1.5 3.0 4.8 4.3 4.4 0.0 0.7 0.1 3.4 4.0 5.8 4.4 1.9 6.8 4.4 0.2 0.0 0.0 0.0 0.0 10.7 13.3 15.3 10.5 6.1 12.8 6.6 4.4 11.7 44.6 31.5
0.0 0.0 0.0 0.0 0.0 0.0 0.0 0.0 0.0 0.0 0.0 0.0 12.5 21.1 0.1 20.4 12.2 5.0 4.1 5.8 6.1 5.7 0.5 0.2 3.5 3.4 7.1 12.9 4.7 2.6 1.3 0.4 0.0 0.2 0.0 0.5 16.3 6.2 4.0 4.0 2.4 4.4 6.9 5.0 10.0 11.0 23.0
0.0 0.0 0.0 0.0 0.0 0.0 0.0 0.0 0.0 0.0 0.0 0.0 47.0 8.6 1.8 2.0 0.1 2.9 10.5 14.6 7.1 1.4 5.0 2.1 3.7 1.7 2.9 10.0 4.6 8.2 3.1 0.4 2.7 0.0 0.2 0.1 8.0 7.2 6.9 3.3 1.2 7.0 7.8 4.3 4.1 8.4 11.1
0.0 0.0 0.0 0.0 0.0 0.0 0.0 0.0 0.0 0.0 0.0 0.0 1.4 0.0 3.5 3.0 1.8 5.9 4.7 2.7 3.7 2.7 0.3 0.7 1.7 4.4 4.9 2.1 0.3 0.2 0.5 0.8 2.0 4.1 3.2 3.3 6.3 6.7 10.4 0.8 1.7 11.7 14.0 8.2 5.3 3.8 4.5
0.0 0.0 0.0 0.0 0.0 0.0 0.0 0.0 0.0 0.0 0.0 0.0 0.0 0.6 13.9 16.5 5.2 2.5 0.3 1.0 1.8 1.5 5.6 1.1 0.3 2.0 0.0 0.0 0.0 0.0 0.2 0.1 0.1 0.8 1.0 5.8 5.6 8.1 9.8 5.4 25.6 10.9 1.6 2.0 2.4 2.3 2.6
0.0 0.0 0.0 0.0 0.0 0.0 0.0 0.0 0.0 0.0 0.0 0.0 0.0 0.1 10.1 17.1 1.5 2.0 2.0 2.8 0.2 0.5 2.0 1.3 0.6 0.0 0.0 0.6 3.5 5.8 3.0 1.8 0.7 0.1 0.3 1.0 4.8 15.5 16.7 6.9 4.2 2.4 1.8 2.7 2.7 3.4 1.6
0.0 0.0 0.0 0.0 0.0 0.0 0.0 0.0 0.0 0.0 0.0 0.0 0.0 0.0 5.9 21.2 5.9 0.4 4.7 3.2 5.4 2.9 3.8 1.8 0.0 0.0 0.0 3.1 10.7 14.1 6.7 2.1 1.4 0.5 0.0 0.3 2.0 17.5 19.2 18.2 10.2 2.8 0.5 0.1 0.6 5.0 0.8
0.0 0.0 0.0 0.0 0.0 0.0 0.0 0.0 0.0 0.0 0.0 0.0 0.0 0.0 2.4 24.8 0.2 0.4 2.3 4.2 2.0 2.2 3.5 0.8 0.4 0.1 0.5 8.4 14.2 12.0 7.6 3.3 7.2 4.3 2.8 7.0 11.4 27.7 23.2 30.4 8.7 1.5 0.6 0.2 8.9 9.8 0.8
0.0 0.0 0.0 0.0 0.0 0.0 0.0 0.0 0.0 0.0 0.0 0.0 0.0 0.0 0.0 10.5 0.4 0.0 0.0 0.2 0.3 0.5 5.1 1.9 6.5 4.4 8.7 19.1 16.6 11.5 10.2 7.4 5.1 1.7 5.5 9.8 15.3 14.0 16.9 29.3 25.4 1.2 1.0 4.0 4.6 0.5 0.5
0.0 0.0 0.0 0.0 0.0 0.0 0.0 0.0 0.0 0.0 0.0 0.0 2.1 0.0 0.0 1.5 0.0 0.0 0.0 0.0 0.0 0.0 0.4 2.0 5.5 6.3 9.1 19.6 13.5 5.8 7.1 7.8 4.9 13.5 0.9 9.3 4.9 9.9 9.6 17.7 6.1 3.9 3.7 1.0 0.4 1.2 1.0

GFSGBSN_prec_kuchsnow_246.txt.gz
Snowfall_Accumulation
0.0 0.0 0.0 0.0 0.0 0.0 0.0 0.0 0.0 0.0 0.0 0.0 0.0 0.0 0.0 0.0 0.0 0.0 0.0 0.0 0.0 0.0 0.0 0.0 0.0 0.0 0.0 0.0 0.0 0.0 0.0 0.0 0.0 0.0 0.0 0.0 0.0 0.0 0.0 0.0 0.0 0.0 0.0 0.0 0.0 0.0 0.0
0.0 0.0 0.0 0.0 0.0 0.0 0.0 0.0 0.0 0.0 0.0 0.0 0.0 0.0 0.0 0.0 0.0 0.0 0.0 0.0 0.0 0.0 0.0 0.0 0.0 0.0 0.0 0.0 0.0 0.0 0.0 0.0 0.0 0.0 0.0 0.0 0.0 0.0 0.0 0.0 0.0 0.0 0.0 0.0 0.0 0.0 0.0
0.0 0.0 0.0 0.0 0.0 0.0 0.0 0.0 0.0 0.0 0.0 0.0 0.0 0.0 0.0 0.0 0.0 0.0 0.0 0.0 0.0 0.0 0.0 0.0 0.0 0.0 0.0 0.0 0.0 0.0 0.0 0.0 0.0 0.0 0.0 0.0 0.0 0.0 0.0 0.0 0.0 0.0 0.0 0.0 0.0 0.0 0.0
0.0 0.0 0.0 0.0 0.0 0.0 0.0 0.0 0.0 0.0 0.0 0.0 0.0 0.0 0.0 0.0 0.0 0.0 0.0 0.0 0.0 0.0 0.0 0.0 0.0 0.0 0.0 0.0 0.0 0.0 0.0 0.0 0.0 0.0 0.0 0.0 0.0 0.0 0.0 0.0 0.0 0.0 0.0 0.0 0.0 0.0 0.0
0.0 0.0 0.0 0.0 0.0 0.0 0.0 0.0 0.0 0.0 0.0 0.0 0.0 0.0 0.0 0.0 0.0 0.0 0.0 0.0 0.0 0.0 0.0 0.0 0.0 0.0 0.0 0.0 0.0 0.0 0.0 0.0 0.0 0.0 0.0 0.0 0.0 0.0 0.0 0.0 0.0 0.0 0.0 0.0 0.0 0.0 0.0
0.0 0.0 0.0 0.0 0.0 0.0 0.0 0.0 0.0 0.0 0.0 0.0 0.0 0.0 0.0 0.0 0.0 0.0 0.0 0.0 0.0 0.0 0.0 0.0 0.0 0.0 0.0 0.0 0.0 0.0 0.0 0.0 0.0 0.0 0.0 0.0 0.0 0.0 0.0 0.0 0.4 0.0 0.0 0.0 0.0 0.0 0.0
0.0 0.0 0.0 0.0 0.0 0.0 0.0 0.0 0.0 0.0 0.0 0.0 0.0 0.0 0.0 0.0 0.0 0.0 0.0 0.0 0.0 0.0 0.0 0.0 0.0 0.0 0.0 0.0 0.0 0.0 0.0 0.0 0.0 0.0 0.0 0.0 0.0 0.0 0.0 0.0 0.0 0.1 0.2 0.0 0.0 0.0 0.0
0.0 0.0 0.0 0.0 0.0 0.0 0.0 0.0 0.0 0.0 0.0 0.0 0.0 0.0 0.0 0.0 0.0 0.0 0.0 0.0 0.0 0.0 0.0 0.0 0.0 0.0 0.0 0.0 0.0 0.0 0.0 0.0 0.0 0.0 0.0 0.0 0.0 0.0 0.0 0.0 0.0 0.0 0.0 0.2 0.0 0.0 0.0
0.0 0.0 0.0 0.0 0.0 0.0 0.0 0.0 0.0 0.0 0.0 0.0 0.0 0.0 0.0 0.0 0.0 0.0 0.0 0.0 0.0 0.0 0.1 0.0 0.0 0.0 0.0 0.0 0.0 0.0 0.0 0.0 0.0 0.0 0.0 0.0 0.0 0.0 0.0 0.0 0.0 0.0 0.0 0.0 0.0 0.0 0.0
0.0 0.0 0.0 0.0 0.0 0.0 0.0 0.0 0.0 0.0 0.0 0.0 0.0 0.0 0.0 0.0 0.0 0.0 0.0 0.0 0.0 0.0 2.6 0.0 0.0 0.0 0.0 0.0 0.0 0.0 0.0 0.0 0.0 0.0 0.0 0.0 0.0 0.0 0.0 0.0 0.0 2.6 0.0 0.0 0.0 0.0 1.1
0.0 0.0 0.0 0.0 0.0 0.0 0.0 0.0 0.0 0.0 0.0 0.0 0.0 0.0 0.0 0.0 0.0 0.0 0.0 0.0 0.0 0.0 82.1 0.0 0.0 0.0 0.0 0.0 0.0 0.0 0.0 0.0 0.0 0.0 0.0 0.1 0.0 0.0 0.1 0.1 0.0 0.0 0.0 0.0 0.0 2.6 4.1
0.0 0.0 0.0 0.0 0.0 0.0 0.0 0.0 0.0 0.0 0.0 0.0 0.0 0.0 0.0 0.0 0.0 0.0 0.0 0.0 0.0 14.0 71.5 0.0 0.0 0.0 0.0 0.0 0.0 0.0 0.0 0.0 0.0 0.0 0.0 0.0 0.0 0.0 0.1 0.0 0.0 0.0 0.0 0.0 0.2 0.8 17.8
0.0 0.0 0.0 0.0 0.0 0.0 0.0 0.0 0.0 0.0 0.0 0.0 0.0 0.0 0.0 0.0 0.0 0.0 0.0 0.0 35.6 69.8 0.0 0.0 0.0 0.0 0.0 0.0 0.0 0.0 0.0 0.0 2.1 6.3 0.8 0.0 0.0 0.0 0.0 0.0 0.0 0.0 0.9 26.1 27.4 28.2 19.5
0.0 0.0 0.0 0.0 0.0 0.0 0.0 0.0 0.0 0.0 0.0 0.0 0.0 0.0 0.0 0.0 0.0 0.0 0.0 3.9 82.7 6.5 0.0 0.0 0.0 0.0 0.4 0.2 0.0 0.0 0.0 1.1 2.6 5.1 6.6 5.8 6.5 1.3 0.5 0.3 1.7 0.5 2.1 18.6 43.2 18.8 5.1
0.0 0.0 0.0 0.0 0.0 0.0 0.0 0.0 0.0 0.0 0.0 0.0 0.0 0.0 0.0 0.0 0.0 0.0 1.9 64.6 23.0 1.5 0.5 0.8 0.0 0.6 1.4 0.5 1.4 0.6 0.1 2.3 5.0 7.8 24.7 27.6 12.0 2.8 2.0 0.7 0.1 1.6 4.7 0.5 12.3 1.6 19.3
0.0 0.0 0.0 0.0 0.0 0.0 0.0 0.0 0.0 0.0 0.0 0.0 0.0 0.0 0.0 0.0 0.0 0.0 18.3 32.6 5.6 0.8 1.3 1.5 10.3 6.2 9.8 2.7 5.5 7.4 7.6 8.0 8.5 7.9 6.7 27.1 39.1 7.7 1.6 0.0 0.0 3.5 1.2 9.8 8.9 64.9 55.4
0.0 0.0 0.0 0.0 0.0 0.0 0.0 0.0 0.0 0.0 0.0 0.0 0.0 0.7 0.0 0.0 0.0 1.5 49.3 13.7 1.1 0.0 0.0 3.8 12.3 12.7 6.7 8.5 6.4 8.1 5.7 1.4 1.1 3.9 2.8 10.6 22.6 7.0 2.5 8.4 15.6 12.8 18.1 18.5 26.3 44.3 54.5
0.0 0.0 0.0 0.0 0.0 0.0 0.0 0.0 0.0 0.0 0.0 0.0 0.0 17.6 0.0 0.0 10.7 24.5 19.7 3.8 0.0 0.0 0.0 1.1 2.5 5.4 9.0 8.6 10.0 13.5 7.8 1.8 0.0 0.6 2.7 1.8 14.6 10.4 3.0 0.6 0.6 3.4 16.7 28.0 59.2 56.6 41.8
0.0 0.0 0.0 0.0 0.0 0.0 0.0 0.0 0.0 0.0 0.0 0.0 6.6 4.3 0.0 0.0 30.8 15.1 2.7 1.6 0.9 1.6 0.8 2.2 4.2 4.9 6.5 11.4 15.5 5.9 4.5 0.0 0.0 0.8 5.8 3.4 14.2 14.5 5.8 0.9 0.2 3.8 4.7 9.5 22.3 31.6 50.2
0.0 0.0 0.0 0.0 0.0 0.0 0.0 0.0 0.0 0.0 0.0 0.0 5.2 29.5 3.8 2.7 1.5 3.0 4.8 4.3 4.4 0.0 0.7 0.1 3.4 4.0 5.8 4.4 1.9 6.8 4.4 0.2 0.0 0.0 0.0 0.0 10.7 13.3 15.3 10.5 6.1 12.9 6.6 4.4 11.7 45.3 31.7
0.0 0.0 0.0 0.0 0.0 0.0 0.0 0.0 0.0 0.0 0.0 0.0 12.5 21.1 0.1 20.4 12.2 5.0 4.1 5.8 6.1 5.7 0.5 0.2 3.5 3.4 7.1 12.9 4.7 2.6 1.3 0.4 0.0 0.2 0.0 0.5 16.4 6.2 4.0 4.0 2.4 4.4 6.9 5.0 10.2 11.3 23.5
0.0 0.0 0.0 0.0 0.0 0.0 0.0 0.0 0.0 0.0 0.0 0.0 47.0 8.6 1.8 2.0 0.1 2.9 10.5 14.6 7.1 1.4 5.0 2.1 3.7 1.7 2.9 10.0 4.6 8.2 3.1 0.4 2.7 0.0 0.2 0.1 8.0 7.2 7.0 3.3 1.2 7.0 7.8 4.3 4.1 8.4 11.1
0.0 0.0 0.0 0.0 0.0 0.0 0.0 0.0 0.0 0.0 0.0 0.0 1.4 0.0 3.5 3.0 1.8 5.9 4.7 2.7 3.7 2.7 0.3 0.7 1.7 4.4 4.9 2.1 0.3 0.2 0.5 0.8 2.0 4.1 3.2 3.3 6.3 6.7 10.5 0.8 1.7 11.7 14.0 8.2 5.3 3.8 4.5
0.0 0.0 0.0 0.0 0.0 0.0 0.0 0.0 0.0 0.0 0.0 0.0 0.0 0.6 13.9 16.5 5.2 2.5 0.3 1.0 1.8 1.5 5.6 1.1 0.3 2.0 0.0 0.0 0.0 0.0 0.2 0.1 0.1 0.8 1.0 5.8 5.6 8.1 9.8 5.5 26.5 11.0 1.6 2.0 2.4 2.3 2.6
0.0 0.0 0.0 0.0 0.0 0.0 0.0 0.0 0.0 0.0 0.0 0.0 0.0 0.1 10.1 17.1 1.5 2.0 2.0 2.8 0.2 0.5 2.0 1.3 0.6 0.0 0.0 0.6 3.5 5.8 3.0 1.8 0.7 0.1 0.3 1.0 4.8 15.5 16.8 7.2 4.2 2.4 1.8 2.7 2.7 3.4 1.6
0.0 0.0 0.0 0.0 0.0 0.0 0.0 0.0 0.0 0.0 0.0 0.0 0.0 0.0 5.9 21.2 5.9 0.4 4.7 3.2 5.4 2.9 3.8 1.8 0.0 0.0 0.0 3.1 10.7 14.1 6.7 2.1 1.4 0.5 0.0 0.3 2.0 17.5 19.2 18.2 10.6 2.8 0.5 0.1 0.6 6.8 0.8
0.0 0.0 0.0 0.0 0.0 0.0 0.0 0.0 0.0 0.0 0.0 0.0 0.0 0.0 2.4 24.8 0.2 0.4 2.3 4.2 2.0 2.2 3.5 0.8 0.4 0.1 0.5 8.4 14.2 12.0 7.6 3.3 7.2 4.3 2.8 7.0 11.4 27.7 23.2 30.4 8.7 1.5 0.6 0.2 9.4 9.8 0.8
0.0 0.0 0.0 0.0 0.0 0.0 0.0 0.0 0.0 0.0 0.0 0.0 0.0 0.0 0.0 10.5 0.4 0.0 0.0 0.2 0.3 0.5 5.1 1.9 6.5 4.4 8.7 19.1 16.6 11.5 10.2 7.4 5.1 1.7 5.5 9.8 15.3 14.0 16.9 29.3 25.4 1.2 1.0 4.0 4.6 0.5 0.5
0.0 0.0 0.0 0.0 0.0 0.0 0.0 0.0 0.0 0.0 0.0 0.0 2.1 0.0 0.0 1.5 0.0 0.0 0.0 0.0 0.0 0.0 0.4 2.0 5.5 6.3 9.1 19.6 13.5 5.8 7.1 7.8 4.9 13.5 0.9 9.3 4.9 9.9 9.6 17.7 6.1 3.9 3.7 1.0 0.4 1.2 1.0

GFSGBSN_prec_kuchsnow_249.txt.gz
Snowfall_Accumulation
0.0 0.0 0.0 0.0 0.0 0.0 0.0 0.0 0.0 0.0 0.0 0.0 0.0 0.0 0.0 0.0 0.0 0.0 0.0 0.0 0.0 0.0 0.0 0.0 0.0 0.0 0.0 0.0 0.0 0.0 0.0 0.0 0.0 0.0 0.0 0.0 0.0 0.0 0.0 0.0 0.0 0.0 0.0 0.0 0.0 0.0 0.0
0.0 0.0 0.0 0.0 0.0 0.0 0.0 0.0 0.0 0.0 0.0 0.0 0.0 0.0 0.0 0.0 0.0 0.0 0.0 0.0 0.0 0.0 0.0 0.0 0.0 0.0 0.0 0.0 0.0 0.0 0.0 0.0 0.0 0.0 0.0 0.0 0.0 0.0 0.0 0.0 0.0 0.0 0.0 0.0 0.0 0.0 0.0
0.0 0.0 0.0 0.0 0.0 0.0 0.0 0.0 0.0 0.0 0.0 0.0 0.0 0.0 0.0 0.0 0.0 0.0 0.0 0.0 0.0 0.0 0.0 0.0 0.0 0.0 0.0 0.0 0.0 0.0 0.0 0.0 0.0 0.0 0.0 0.0 0.0 0.0 0.0 0.0 0.0 0.0 0.0 0.0 0.0 0.0 0.0
0.0 0.0 0.0 0.0 0.0 0.0 0.0 0.0 0.0 0.0 0.0 0.0 0.0 0.0 0.0 0.0 0.0 0.0 0.0 0.0 0.0 0.0 0.0 0.0 0.0 0.0 0.0 0.0 0.0 0.0 0.0 0.0 0.0 0.0 0.0 0.0 0.0 0.0 0.0 0.0 0.0 0.0 0.0 0.0 0.0 0.0 0.0
0.0 0.0 0.0 0.0 0.0 0.0 0.0 0.0 0.0 0.0 0.0 0.0 0.0 0.0 0.0 0.0 0.0 0.0 0.0 0.0 0.0 0.0 0.0 0.0 0.0 0.0 0.0 0.0 0.0 0.0 0.0 0.0 0.0 0.0 0.0 0.0 0.0 0.0 0.0 0.0 0.0 0.0 0.0 0.0 0.0 0.0 0.0
0.0 0.0 0.0 0.0 0.0 0.0 0.0 0.0 0.0 0.0 0.0 0.0 0.0 0.0 0.0 0.0 0.0 0.0 0.0 0.0 0.0 0.0 0.0 0.0 0.0 0.0 0.0 0.0 0.0 0.0 0.0 0.0 0.0 0.0 0.0 0.0 0.0 0.0 0.0 0.0 0.4 0.0 0.0 0.0 0.0 0.0 0.0
0.0 0.0 0.0 0.0 0.0 0.0 0.0 0.0 0.0 0.0 0.0 0.0 0.0 0.0 0.0 0.0 0.0 0.0 0.0 0.0 0.0 0.0 0.0 0.0 0.0 0.0 0.0 0.0 0.0 0.0 0.0 0.0 0.0 0.0 0.0 0.0 0.0 0.0 0.0 0.0 0.0 0.1 0.2 0.0 0.0 0.0 0.0
0.0 0.0 0.0 0.0 0.0 0.0 0.0 0.0 0.0 0.0 0.0 0.0 0.0 0.0 0.0 0.0 0.0 0.0 0.0 0.0 0.0 0.0 0.0 0.0 0.0 0.0 0.0 0.0 0.0 0.0 0.0 0.0 0.0 0.0 0.0 0.0 0.0 0.0 0.0 0.0 0.0 0.0 0.0 0.2 0.0 0.0 0.0
0.0 0.0 0.0 0.0 0.0 0.0 0.0 0.0 0.0 0.0 0.0 0.0 0.0 0.0 0.0 0.0 0.0 0.0 0.0 0.0 0.0 0.0 0.1 0.0 0.0 0.0 0.0 0.0 0.0 0.0 0.0 0.0 0.0 0.0 0.0 0.0 0.0 0.0 0.0 0.0 0.0 0.0 0.0 0.0 0.0 0.0 0.0
0.0 0.0 0.0 0.0 0.0 0.0 0.0 0.0 0.0 0.0 0.0 0.0 0.0 0.0 0.0 0.0 0.0 0.0 0.0 0.0 0.0 0.0 2.6 0.0 0.0 0.0 0.0 0.0 0.0 0.0 0.0 0.0 0.0 0.0 0.0 0.0 0.0 0.0 0.0 0.0 0.0 2.6 0.0 0.0 0.0 0.0 1.1
0.0 0.0 0.0 0.0 0.0 0.0 0.0 0.0 0.0 0.0 0.0 0.0 0.0 0.0 0.0 0.0 0.0 0.0 0.0 0.0 0.0 0.0 82.1 0.0 0.0 0.0 0.0 0.0 0.0 0.0 0.0 0.0 0.0 0.0 0.0 0.1 0.0 0.0 0.1 0.1 0.0 0.0 0.0 0.0 0.0 2.6 4.1
0.0 0.0 0.0 0.0 0.0 0.0 0.0 0.0 0.0 0.0 0.0 0.0 0.0 0.0 0.0 0.0 0.0 0.0 0.0 0.0 0.0 14.0 71.5 0.0 0.0 0.0 0.0 0.0 0.0 0.0 0.0 0.0 0.0 0.0 0.0 0.0 0.0 0.0 0.1 0.0 0.0 0.0 0.0 0.0 0.2 0.8 19.8
0.0 0.0 0.0 0.0 0.0 0.0 0.0 0.0 0.0 0.0 0.0 0.0 0.0 0.0 0.0 0.0 0.0 0.0 0.0 0.0 35.6 69.8 0.0 0.0 0.0 0.0 0.0 0.0 0.0 0.0 0.0 0.0 2.1 6.3 0.8 0.0 0.0 0.0 0.0 0.0 0.0 0.0 0.9 26.1 27.4 28.9 23.7
0.0 0.0 0.0 0.0 0.0 0.0 0.0 0.0 0.0 0.0 0.0 0.0 0.0 0.0 0.0 0.0 0.0 0.0 0.0 3.9 82.7 6.5 0.0 0.0 0.0 0.0 0.4 0.2 0.0 0.0 0.0 1.1 2.6 5.1 6.6 5.8 6.5 1.3 0.5 0.3 1.7 0.5 2.1 18.6 43.2 18.8 6.1
0.0 0.0 0.0 0.0 0.0 0.0 0.0 0.0 0.0 0.0 0.0 0.0 0.0 0.0 0.0 0.0 0.0 0.0 1.9 64.6 23.0 1.5 0.5 0.8 0.0 0.6 1.4 0.5 1.4 0.6 0.1 2.3 5.0 7.8 24.7 27.6 12.0 2.8 2.0 0.7 0.1 1.6 4.7 0.5 12.3 1.9 19.3
0.0 0.0 0.0 0.0 0.0 0.0 0.0 0.0 0.0 0.0 0.0 0.0 0.0 0.0 0.0 0.0 0.0 0.0 18.3 32.6 5.6 0.8 1.3 1.5 10.3 6.2 9.8 2.7 5.5 7.4 7.6 8.0 8.5 7.9 6.7 27.1 39.1 7.7 1.6 0.0 0.0 3.5 1.2 9.8 8.9 66.4 55.4
0.0 0.0 0.0 0.0 0.0 0.0 0.0 0.0 0.0 0.0 0.0 0.0 0.0 0.7 0.0 0.0 0.0 1.5 49.3 13.7 1.1 0.0 0.0 3.8 12.3 12.7 6.7 8.5 6.4 8.1 5.7 1.4 1.1 3.9 2.8 10.6 22.6 7.0 2.5 8.4 15.6 12.8 18.1 18.5 26.8 45.5 54.5
0.0 0.0 0.0 0.0 0.0 0.0 0.0 0.0 0.0 0.0 0.0 0.0 0.0 17.6 0.0 0.0 10.7 24.5 19.7 3.8 0.0 0.0 0.0 1.1 2.5 5.4 9.0 8.6 10.0 13.5 7.8 1.8 0.0 0.6 2.7 1.8 14.6 10.4 4.0 0.6 0.6 3.4 16.7 28.0 59.2 56.6 42.6
0.0 0.0 0.0 0.0 0.0 0.0 0.0 0.0 0.0 0.0 0.0 0.0 6.6 4.3 0.0 0.0 30.8 15.1 2.7 1.6 0.9 1.6 0.8 2.2 4.2 4.9 6.5 11.4 15.5 5.9 4.5 0.0 0.0 0.8 5.8 3.4 14.2 14.5 5.8 0.9 0.2 3.8 4.7 9.5 22.3 31.6 50.2
0.0 0.0 0.0 0.0 0.0 0.0 0.0 0.0 0.0 0.0 0.0 0.0 5.2 29.5 3.8 2.7 1.5 3.0 4.8 4.3 4.4 0.0 0.7 0.1 3.4 4.0 5.8 4.4 1.9 6.8 4.4 0.2 0.0 0.0 0.0 0.0 10.7 13.3 15.3 10.5 6.1 12.9 6.6 4.4 11.7 45.3 31.7
0.0 0.0 0.0 0.0 0.0 0.0 0.0 0.0 0.0 0.0 0.0 0.0 12.5 21.1 0.1 20.5 12.2 5.0 4.1 5.8 6.1 5.7 0.5 0.2 3.5 3.4 7.1 12.9 4.7 2.6 1.3 0.4 0.0 0.2 0.0 0.5 16.4 6.2 4.0 4.0 2.4 4.4 6.9 5.0 10.2 11.3 23.5
0.0 0.0 0.0 0.0 0.0 0.0 0.0 0.0 0.0 0.0 0.0 0.0 47.0 8.6 1.8 2.0 0.1 2.9 10.5 14.6 7.1 1.4 5.0 2.1 3.7 1.7 2.9 10.0 4.6 8.2 3.1 0.4 2.7 0.0 0.2 0.1 8.0 7.2 7.0 3.3 1.2 7.0 7.8 4.3 4.1 8.4 11.1
0.0 0.0 0.0 0.0 0.0 0.0 0.0 0.0 0.0 0.0 0.0 0.0 1.4 0.0 3.5 3.0 1.8 5.9 4.7 2.7 3.7 2.7 0.3 0.7 1.7 4.4 4.9 2.1 0.3 0.2 0.5 0.8 2.0 4.1 3.2 3.3 6.3 6.7 10.5 0.9 2.3 11.7 14.0 8.2 5.3 3.8 4.5
0.0 0.0 0.0 0.0 0.0 0.0 0.0 0.0 0.0 0.0 0.0 0.0 0.0 0.6 13.9 16.5 5.2 2.5 0.3 1.0 1.8 1.5 5.6 1.1 0.3 2.0 0.0 0.0 0.0 0.0 0.2 0.1 0.1 0.8 1.0 5.8 5.6 8.1 9.8 5.5 28.1 11.0 1.6 2.0 2.4 2.3 2.6
0.0 0.0 0.0 0.0 0.0 0.0 0.0 0.0 0.0 0.0 0.0 0.0 0.0 0.1 10.1 17.1 1.5 2.0 2.0 2.8 0.2 0.5 2.0 1.3 0.6 0.0 0.0 0.6 3.5 5.8 3.0 1.8 0.7 0.1 0.3 1.0 4.8 15.5 16.8 7.2 4.2 2.4 1.8 2.7 2.7 3.4 1.6
0.0 0.0 0.0 0.0 0.0 0.0 0.0 0.0 0.0 0.0 0.0 0.0 0.0 0.0 5.9 21.2 5.9 0.4 4.7 3.2 5.4 2.9 3.8 1.8 0.0 0.0 0.0 3.1 10.7 14.1 6.7 2.1 1.4 0.5 0.0 0.3 2.0 17.5 19.2 18.2 10.8 2.8 0.5 0.1 0.6 6.8 0.8
0.0 0.0 0.0 0.0 0.0 0.0 0.0 0.0 0.0 0.0 0.0 0.0 0.0 0.0 2.4 24.8 0.2 0.4 2.3 4.2 2.0 2.2 3.5 0.8 0.4 0.1 0.5 8.4 14.2 12.0 7.6 3.3 7.2 4.3 2.8 7.0 11.4 27.7 23.2 30.4 8.7 1.5 0.6 0.2 9.4 9.8 0.8
0.0 0.0 0.0 0.0 0.0 0.0 0.0 0.0 0.0 0.0 0.0 0.0 0.0 0.0 0.0 10.5 0.4 0.0 0.0 0.2 0.3 0.5 5.1 1.9 6.5 4.4 8.7 19.1 16.6 11.5 10.2 7.4 5.1 1.7 5.5 9.8 15.3 14.0 16.9 29.3 25.4 1.2 1.0 4.0 4.6 0.5 0.5
0.0 0.0 0.0 0.0 0.0 0.0 0.0 0.0 0.0 0.0 0.0 0.0 2.1 0.0 0.0 1.5 0.0 0.0 0.0 0.0 0.0 0.0 0.4 2.0 5.5 6.3 9.1 19.6 13.5 5.8 7.1 7.8 4.9 13.5 0.9 9.3 4.9 9.9 9.6 17.7 6.1 3.9 3.7 1.0 0.4 1.2 1.0